<?xml version="1.0" encoding="utf-8"?>
<gpx xmlns:xsi="http://www.w3.org/2001/XMLSchema-instance" xmlns:xsd="http://www.w3.org/2001/XMLSchema" version="1.1" creator="Shapelink.com" xmlns="http://www.topografix.com/GPX/1/1" xmlns:gpxtpx="http://www.garmin.com/xmlschemas/TrackPointExtension/v1">
  <metadata>
    <name>Längdskidåkning 8.64 km, 2011-12-27</name>
    <desc></desc>
    <author><name>Andreas Östlund</name></author> 
    <time>1970-01-01T01:00:00Z</time>
  </metadata>
  <trk>
    <name>Längdskidåkning 8.64 km, 2011-12-27</name>
    <trkseg>
      <trkpt lat="62.505813" lon="14.179162">
        <ele>455</ele>
        <time>1970-01-01T01:00:00Z</time>
      </trkpt>
      <trkpt lat="62.505839" lon="14.179411">
        <ele>454.375</ele>
        <time>1970-01-01T01:00:00Z</time>
      </trkpt>
      <trkpt lat="62.505894" lon="14.179257">
        <ele>453.889</ele>
        <time>1970-01-01T01:00:00Z</time>
      </trkpt>
      <trkpt lat="62.505999" lon="14.179241">
        <ele>453.5</ele>
        <time>1970-01-01T01:00:00Z</time>
      </trkpt>
      <trkpt lat="62.506094" lon="14.179223">
        <ele>453.182</ele>
        <time>1970-01-01T01:00:00Z</time>
      </trkpt>
      <trkpt lat="62.5062" lon="14.179164">
        <ele>452.545</ele>
        <time>1970-01-01T01:00:00Z</time>
      </trkpt>
      <trkpt lat="62.506308" lon="14.179108">
        <ele>451.909</ele>
        <time>1970-01-01T01:00:00Z</time>
      </trkpt>
      <trkpt lat="62.506417" lon="14.179083">
        <ele>451.273</ele>
        <time>1970-01-01T01:00:00Z</time>
      </trkpt>
      <trkpt lat="62.506514" lon="14.179048">
        <ele>450.636</ele>
        <time>1970-01-01T01:00:00Z</time>
      </trkpt>
      <trkpt lat="62.506604" lon="14.17893">
        <ele>450</ele>
        <time>1970-01-01T01:00:00Z</time>
      </trkpt>
      <trkpt lat="62.506696" lon="14.178787">
        <ele>449.364</ele>
        <time>1970-01-01T01:00:00Z</time>
      </trkpt>
      <trkpt lat="62.506772" lon="14.17867">
        <ele>448.455</ele>
        <time>1970-01-01T01:00:00Z</time>
      </trkpt>
      <trkpt lat="62.506846" lon="14.178501">
        <ele>447.909</ele>
        <time>1970-01-01T01:00:00Z</time>
      </trkpt>
      <trkpt lat="62.506904" lon="14.178325">
        <ele>447.364</ele>
        <time>1970-01-01T01:00:00Z</time>
      </trkpt>
      <trkpt lat="62.506968" lon="14.17815">
        <ele>446.818</ele>
        <time>1970-01-01T01:00:00Z</time>
      </trkpt>
      <trkpt lat="62.507065" lon="14.178081">
        <ele>446.273</ele>
        <time>1970-01-01T01:00:00Z</time>
      </trkpt>
      <trkpt lat="62.507176" lon="14.178009">
        <ele>445.909</ele>
        <time>1970-01-01T01:00:00Z</time>
      </trkpt>
      <trkpt lat="62.507279" lon="14.177914">
        <ele>445.545</ele>
        <time>1970-01-01T01:00:00Z</time>
      </trkpt>
      <trkpt lat="62.507386" lon="14.177777">
        <ele>445.091</ele>
        <time>1970-01-01T01:00:00Z</time>
      </trkpt>
      <trkpt lat="62.507493" lon="14.177644">
        <ele>444.636</ele>
        <time>1970-01-01T01:00:00Z</time>
      </trkpt>
      <trkpt lat="62.507605" lon="14.177688">
        <ele>444.182</ele>
        <time>1970-01-01T01:00:00Z</time>
      </trkpt>
      <trkpt lat="62.507721" lon="14.177626">
        <ele>443.727</ele>
        <time>1970-01-01T01:00:00Z</time>
      </trkpt>
      <trkpt lat="62.507844" lon="14.177547">
        <ele>443.545</ele>
        <time>1970-01-01T01:00:00Z</time>
      </trkpt>
      <trkpt lat="62.507953" lon="14.177451">
        <ele>443.455</ele>
        <time>1970-01-01T01:00:00Z</time>
      </trkpt>
      <trkpt lat="62.508048" lon="14.177444">
        <ele>443.364</ele>
        <time>1970-01-01T01:00:00Z</time>
      </trkpt>
      <trkpt lat="62.508155" lon="14.177419">
        <ele>443.273</ele>
        <time>1970-01-01T01:00:00Z</time>
      </trkpt>
      <trkpt lat="62.508254" lon="14.177394">
        <ele>443.182</ele>
        <time>1970-01-01T01:00:00Z</time>
      </trkpt>
      <trkpt lat="62.508375" lon="14.177344">
        <ele>443.091</ele>
        <time>1970-01-01T01:00:00Z</time>
      </trkpt>
      <trkpt lat="62.508479" lon="14.177296">
        <ele>442.909</ele>
        <time>1970-01-01T01:00:00Z</time>
      </trkpt>
      <trkpt lat="62.508591" lon="14.177306">
        <ele>442.818</ele>
        <time>1970-01-01T01:00:00Z</time>
      </trkpt>
      <trkpt lat="62.508688" lon="14.177288">
        <ele>442.727</ele>
        <time>1970-01-01T01:00:00Z</time>
      </trkpt>
      <trkpt lat="62.50878" lon="14.177237">
        <ele>442.636</ele>
        <time>1970-01-01T01:00:00Z</time>
      </trkpt>
      <trkpt lat="62.508881" lon="14.177198">
        <ele>442.545</ele>
        <time>1970-01-01T01:00:00Z</time>
      </trkpt>
      <trkpt lat="62.508965" lon="14.177087">
        <ele>442.455</ele>
        <time>1970-01-01T01:00:00Z</time>
      </trkpt>
      <trkpt lat="62.50902" lon="14.176932">
        <ele>442.364</ele>
        <time>1970-01-01T01:00:00Z</time>
      </trkpt>
      <trkpt lat="62.50907" lon="14.176753">
        <ele>442.273</ele>
        <time>1970-01-01T01:00:00Z</time>
      </trkpt>
      <trkpt lat="62.509129" lon="14.17658">
        <ele>442.182</ele>
        <time>1970-01-01T01:00:00Z</time>
      </trkpt>
      <trkpt lat="62.509182" lon="14.176388">
        <ele>442.091</ele>
        <time>1970-01-01T01:00:00Z</time>
      </trkpt>
      <trkpt lat="62.50927" lon="14.176229">
        <ele>442.182</ele>
        <time>1970-01-01T01:00:00Z</time>
      </trkpt>
      <trkpt lat="62.509356" lon="14.176103">
        <ele>442.364</ele>
        <time>1970-01-01T01:00:00Z</time>
      </trkpt>
      <trkpt lat="62.509445" lon="14.17598">
        <ele>442.545</ele>
        <time>1970-01-01T01:00:00Z</time>
      </trkpt>
      <trkpt lat="62.509506" lon="14.175818">
        <ele>442.727</ele>
        <time>1970-01-01T01:00:00Z</time>
      </trkpt>
      <trkpt lat="62.509576" lon="14.175677">
        <ele>442.909</ele>
        <time>1970-01-01T01:00:00Z</time>
      </trkpt>
      <trkpt lat="62.509657" lon="14.175532">
        <ele>443.091</ele>
        <time>1970-01-01T01:00:00Z</time>
      </trkpt>
      <trkpt lat="62.509728" lon="14.175414">
        <ele>443.273</ele>
        <time>1970-01-01T01:00:00Z</time>
      </trkpt>
      <trkpt lat="62.509793" lon="14.175253">
        <ele>443.455</ele>
        <time>1970-01-01T01:00:00Z</time>
      </trkpt>
      <trkpt lat="62.509903" lon="14.175147">
        <ele>443.636</ele>
        <time>1970-01-01T01:00:00Z</time>
      </trkpt>
      <trkpt lat="62.510002" lon="14.175094">
        <ele>443.818</ele>
        <time>1970-01-01T01:00:00Z</time>
      </trkpt>
      <trkpt lat="62.51009" lon="14.175026">
        <ele>444.364</ele>
        <time>1970-01-01T01:00:00Z</time>
      </trkpt>
      <trkpt lat="62.51019" lon="14.174892">
        <ele>444.727</ele>
        <time>1970-01-01T01:00:00Z</time>
      </trkpt>
      <trkpt lat="62.510285" lon="14.174783">
        <ele>445.091</ele>
        <time>1970-01-01T01:00:00Z</time>
      </trkpt>
      <trkpt lat="62.51037" lon="14.174664">
        <ele>445.455</ele>
        <time>1970-01-01T01:00:00Z</time>
      </trkpt>
      <trkpt lat="62.510448" lon="14.17455">
        <ele>445.818</ele>
        <time>1970-01-01T01:00:00Z</time>
      </trkpt>
      <trkpt lat="62.510546" lon="14.174466">
        <ele>446.182</ele>
        <time>1970-01-01T01:00:00Z</time>
      </trkpt>
      <trkpt lat="62.510659" lon="14.174368">
        <ele>446.545</ele>
        <time>1970-01-01T01:00:00Z</time>
      </trkpt>
      <trkpt lat="62.510767" lon="14.174262">
        <ele>446.909</ele>
        <time>1970-01-01T01:00:00Z</time>
      </trkpt>
      <trkpt lat="62.510859" lon="14.174163">
        <ele>447.727</ele>
        <time>1970-01-01T01:00:00Z</time>
      </trkpt>
      <trkpt lat="62.510945" lon="14.174086">
        <ele>448.545</ele>
        <time>1970-01-01T01:00:00Z</time>
      </trkpt>
      <trkpt lat="62.511051" lon="14.174025">
        <ele>449.364</ele>
        <time>1970-01-01T01:00:00Z</time>
      </trkpt>
      <trkpt lat="62.511144" lon="14.17398">
        <ele>449.818</ele>
        <time>1970-01-01T01:00:00Z</time>
      </trkpt>
      <trkpt lat="62.511252" lon="14.173913">
        <ele>450.273</ele>
        <time>1970-01-01T01:00:00Z</time>
      </trkpt>
      <trkpt lat="62.511348" lon="14.173821">
        <ele>450.727</ele>
        <time>1970-01-01T01:00:00Z</time>
      </trkpt>
      <trkpt lat="62.511436" lon="14.173724">
        <ele>451.182</ele>
        <time>1970-01-01T01:00:00Z</time>
      </trkpt>
      <trkpt lat="62.511525" lon="14.173633">
        <ele>451.636</ele>
        <time>1970-01-01T01:00:00Z</time>
      </trkpt>
      <trkpt lat="62.511637" lon="14.1737">
        <ele>452.091</ele>
        <time>1970-01-01T01:00:00Z</time>
      </trkpt>
      <trkpt lat="62.511691" lon="14.173877">
        <ele>452.545</ele>
        <time>1970-01-01T01:00:00Z</time>
      </trkpt>
      <trkpt lat="62.511705" lon="14.174105">
        <ele>453</ele>
        <time>1970-01-01T01:00:00Z</time>
      </trkpt>
      <trkpt lat="62.511741" lon="14.174332">
        <ele>453</ele>
        <time>1970-01-01T01:00:00Z</time>
      </trkpt>
      <trkpt lat="62.511789" lon="14.17454">
        <ele>453</ele>
        <time>1970-01-01T01:00:00Z</time>
      </trkpt>
      <trkpt lat="62.511848" lon="14.174755">
        <ele>453</ele>
        <time>1970-01-01T01:00:00Z</time>
      </trkpt>
      <trkpt lat="62.511918" lon="14.174972">
        <ele>453</ele>
        <time>1970-01-01T01:00:00Z</time>
      </trkpt>
      <trkpt lat="62.511983" lon="14.17517">
        <ele>453</ele>
        <time>1970-01-01T01:00:00Z</time>
      </trkpt>
      <trkpt lat="62.512033" lon="14.175361">
        <ele>452.909</ele>
        <time>1970-01-01T01:00:00Z</time>
      </trkpt>
      <trkpt lat="62.51208" lon="14.175584">
        <ele>452.818</ele>
        <time>1970-01-01T01:00:00Z</time>
      </trkpt>
      <trkpt lat="62.512102" lon="14.175775">
        <ele>452.727</ele>
        <time>1970-01-01T01:00:00Z</time>
      </trkpt>
      <trkpt lat="62.5121" lon="14.175995">
        <ele>452.636</ele>
        <time>1970-01-01T01:00:00Z</time>
      </trkpt>
      <trkpt lat="62.512059" lon="14.176195">
        <ele>452.545</ele>
        <time>1970-01-01T01:00:00Z</time>
      </trkpt>
      <trkpt lat="62.51199" lon="14.176348">
        <ele>452.273</ele>
        <time>1970-01-01T01:00:00Z</time>
      </trkpt>
      <trkpt lat="62.511899" lon="14.176528">
        <ele>452</ele>
        <time>1970-01-01T01:00:00Z</time>
      </trkpt>
      <trkpt lat="62.511821" lon="14.176733">
        <ele>451.727</ele>
        <time>1970-01-01T01:00:00Z</time>
      </trkpt>
      <trkpt lat="62.51174" lon="14.176955">
        <ele>451.273</ele>
        <time>1970-01-01T01:00:00Z</time>
      </trkpt>
      <trkpt lat="62.511678" lon="14.17713">
        <ele>450.818</ele>
        <time>1970-01-01T01:00:00Z</time>
      </trkpt>
      <trkpt lat="62.51162" lon="14.177351">
        <ele>450.364</ele>
        <time>1970-01-01T01:00:00Z</time>
      </trkpt>
      <trkpt lat="62.511588" lon="14.177601">
        <ele>449.727</ele>
        <time>1970-01-01T01:00:00Z</time>
      </trkpt>
      <trkpt lat="62.511577" lon="14.177838">
        <ele>449.091</ele>
        <time>1970-01-01T01:00:00Z</time>
      </trkpt>
      <trkpt lat="62.511577" lon="14.178077">
        <ele>448.455</ele>
        <time>1970-01-01T01:00:00Z</time>
      </trkpt>
      <trkpt lat="62.511588" lon="14.17828">
        <ele>447.818</ele>
        <time>1970-01-01T01:00:00Z</time>
      </trkpt>
      <trkpt lat="62.511579" lon="14.178532">
        <ele>447.182</ele>
        <time>1970-01-01T01:00:00Z</time>
      </trkpt>
      <trkpt lat="62.51153" lon="14.178871">
        <ele>446.636</ele>
        <time>1970-01-01T01:00:00Z</time>
      </trkpt>
      <trkpt lat="62.511526" lon="14.17908">
        <ele>446.091</ele>
        <time>1970-01-01T01:00:00Z</time>
      </trkpt>
      <trkpt lat="62.511525" lon="14.179288">
        <ele>445.545</ele>
        <time>1970-01-01T01:00:00Z</time>
      </trkpt>
      <trkpt lat="62.511595" lon="14.179435">
        <ele>445.091</ele>
        <time>1970-01-01T01:00:00Z</time>
      </trkpt>
      <trkpt lat="62.511679" lon="14.179569">
        <ele>444.636</ele>
        <time>1970-01-01T01:00:00Z</time>
      </trkpt>
      <trkpt lat="62.511724" lon="14.179741">
        <ele>444.182</ele>
        <time>1970-01-01T01:00:00Z</time>
      </trkpt>
      <trkpt lat="62.511752" lon="14.179966">
        <ele>444</ele>
        <time>1970-01-01T01:00:00Z</time>
      </trkpt>
      <trkpt lat="62.511704" lon="14.180263">
        <ele>443.818</ele>
        <time>1970-01-01T01:00:00Z</time>
      </trkpt>
      <trkpt lat="62.511679" lon="14.180463">
        <ele>443.636</ele>
        <time>1970-01-01T01:00:00Z</time>
      </trkpt>
      <trkpt lat="62.511657" lon="14.180675">
        <ele>443.455</ele>
        <time>1970-01-01T01:00:00Z</time>
      </trkpt>
      <trkpt lat="62.511616" lon="14.180944">
        <ele>443.273</ele>
        <time>1970-01-01T01:00:00Z</time>
      </trkpt>
      <trkpt lat="62.51158" lon="14.181125">
        <ele>443.273</ele>
        <time>1970-01-01T01:00:00Z</time>
      </trkpt>
      <trkpt lat="62.511529" lon="14.181383">
        <ele>443.273</ele>
        <time>1970-01-01T01:00:00Z</time>
      </trkpt>
      <trkpt lat="62.511482" lon="14.18162">
        <ele>443.273</ele>
        <time>1970-01-01T01:00:00Z</time>
      </trkpt>
      <trkpt lat="62.51144" lon="14.181843">
        <ele>443.364</ele>
        <time>1970-01-01T01:00:00Z</time>
      </trkpt>
      <trkpt lat="62.511409" lon="14.182042">
        <ele>443.545</ele>
        <time>1970-01-01T01:00:00Z</time>
      </trkpt>
      <trkpt lat="62.511373" lon="14.182288">
        <ele>443.727</ele>
        <time>1970-01-01T01:00:00Z</time>
      </trkpt>
      <trkpt lat="62.511339" lon="14.182526">
        <ele>443.909</ele>
        <time>1970-01-01T01:00:00Z</time>
      </trkpt>
      <trkpt lat="62.511308" lon="14.182733">
        <ele>444.091</ele>
        <time>1970-01-01T01:00:00Z</time>
      </trkpt>
      <trkpt lat="62.51127" lon="14.182939">
        <ele>444.364</ele>
        <time>1970-01-01T01:00:00Z</time>
      </trkpt>
      <trkpt lat="62.511241" lon="14.183168">
        <ele>444.636</ele>
        <time>1970-01-01T01:00:00Z</time>
      </trkpt>
      <trkpt lat="62.511228" lon="14.183401">
        <ele>444.909</ele>
        <time>1970-01-01T01:00:00Z</time>
      </trkpt>
      <trkpt lat="62.511215" lon="14.183596">
        <ele>445.091</ele>
        <time>1970-01-01T01:00:00Z</time>
      </trkpt>
      <trkpt lat="62.511197" lon="14.183793">
        <ele>445.364</ele>
        <time>1970-01-01T01:00:00Z</time>
      </trkpt>
      <trkpt lat="62.511182" lon="14.184047">
        <ele>445.636</ele>
        <time>1970-01-01T01:00:00Z</time>
      </trkpt>
      <trkpt lat="62.511167" lon="14.184244">
        <ele>445.909</ele>
        <time>1970-01-01T01:00:00Z</time>
      </trkpt>
      <trkpt lat="62.511144" lon="14.184478">
        <ele>446.182</ele>
        <time>1970-01-01T01:00:00Z</time>
      </trkpt>
      <trkpt lat="62.511145" lon="14.184676">
        <ele>446.455</ele>
        <time>1970-01-01T01:00:00Z</time>
      </trkpt>
      <trkpt lat="62.511143" lon="14.184876">
        <ele>446.727</ele>
        <time>1970-01-01T01:00:00Z</time>
      </trkpt>
      <trkpt lat="62.511116" lon="14.185093">
        <ele>447</ele>
        <time>1970-01-01T01:00:00Z</time>
      </trkpt>
      <trkpt lat="62.511067" lon="14.18531">
        <ele>447.182</ele>
        <time>1970-01-01T01:00:00Z</time>
      </trkpt>
      <trkpt lat="62.51104" lon="14.18552">
        <ele>447.455</ele>
        <time>1970-01-01T01:00:00Z</time>
      </trkpt>
      <trkpt lat="62.511015" lon="14.185734">
        <ele>447.727</ele>
        <time>1970-01-01T01:00:00Z</time>
      </trkpt>
      <trkpt lat="62.510971" lon="14.18592">
        <ele>448</ele>
        <time>1970-01-01T01:00:00Z</time>
      </trkpt>
      <trkpt lat="62.510905" lon="14.186063">
        <ele>448.182</ele>
        <time>1970-01-01T01:00:00Z</time>
      </trkpt>
      <trkpt lat="62.510857" lon="14.186254">
        <ele>448.455</ele>
        <time>1970-01-01T01:00:00Z</time>
      </trkpt>
      <trkpt lat="62.51081" lon="14.186423">
        <ele>448.727</ele>
        <time>1970-01-01T01:00:00Z</time>
      </trkpt>
      <trkpt lat="62.510742" lon="14.186621">
        <ele>448.727</ele>
        <time>1970-01-01T01:00:00Z</time>
      </trkpt>
      <trkpt lat="62.51068" lon="14.186846">
        <ele>448.727</ele>
        <time>1970-01-01T01:00:00Z</time>
      </trkpt>
      <trkpt lat="62.510638" lon="14.187029">
        <ele>448.818</ele>
        <time>1970-01-01T01:00:00Z</time>
      </trkpt>
      <trkpt lat="62.510589" lon="14.187256">
        <ele>448.909</ele>
        <time>1970-01-01T01:00:00Z</time>
      </trkpt>
      <trkpt lat="62.510516" lon="14.187498">
        <ele>449</ele>
        <time>1970-01-01T01:00:00Z</time>
      </trkpt>
      <trkpt lat="62.510464" lon="14.187663">
        <ele>449</ele>
        <time>1970-01-01T01:00:00Z</time>
      </trkpt>
      <trkpt lat="62.510416" lon="14.187851">
        <ele>449</ele>
        <time>1970-01-01T01:00:00Z</time>
      </trkpt>
      <trkpt lat="62.510373" lon="14.188043">
        <ele>449</ele>
        <time>1970-01-01T01:00:00Z</time>
      </trkpt>
      <trkpt lat="62.510312" lon="14.188205">
        <ele>449</ele>
        <time>1970-01-01T01:00:00Z</time>
      </trkpt>
      <trkpt lat="62.510251" lon="14.188372">
        <ele>448.909</ele>
        <time>1970-01-01T01:00:00Z</time>
      </trkpt>
      <trkpt lat="62.510211" lon="14.188561">
        <ele>448.909</ele>
        <time>1970-01-01T01:00:00Z</time>
      </trkpt>
      <trkpt lat="62.510182" lon="14.188781">
        <ele>449.091</ele>
        <time>1970-01-01T01:00:00Z</time>
      </trkpt>
      <trkpt lat="62.510162" lon="14.189016">
        <ele>449.273</ele>
        <time>1970-01-01T01:00:00Z</time>
      </trkpt>
      <trkpt lat="62.510113" lon="14.18925">
        <ele>449.364</ele>
        <time>1970-01-01T01:00:00Z</time>
      </trkpt>
      <trkpt lat="62.510025" lon="14.189471">
        <ele>449.455</ele>
        <time>1970-01-01T01:00:00Z</time>
      </trkpt>
      <trkpt lat="62.509962" lon="14.189624">
        <ele>449.636</ele>
        <time>1970-01-01T01:00:00Z</time>
      </trkpt>
      <trkpt lat="62.509904" lon="14.18978">
        <ele>449.818</ele>
        <time>1970-01-01T01:00:00Z</time>
      </trkpt>
      <trkpt lat="62.509846" lon="14.189977">
        <ele>450</ele>
        <time>1970-01-01T01:00:00Z</time>
      </trkpt>
      <trkpt lat="62.509796" lon="14.190183">
        <ele>450.273</ele>
        <time>1970-01-01T01:00:00Z</time>
      </trkpt>
      <trkpt lat="62.509758" lon="14.190375">
        <ele>450.545</ele>
        <time>1970-01-01T01:00:00Z</time>
      </trkpt>
      <trkpt lat="62.509724" lon="14.190608">
        <ele>450.818</ele>
        <time>1970-01-01T01:00:00Z</time>
      </trkpt>
      <trkpt lat="62.509704" lon="14.190813">
        <ele>451.182</ele>
        <time>1970-01-01T01:00:00Z</time>
      </trkpt>
      <trkpt lat="62.509707" lon="14.191062">
        <ele>451.545</ele>
        <time>1970-01-01T01:00:00Z</time>
      </trkpt>
      <trkpt lat="62.509683" lon="14.191307">
        <ele>452.091</ele>
        <time>1970-01-01T01:00:00Z</time>
      </trkpt>
      <trkpt lat="62.50964" lon="14.191541">
        <ele>452.636</ele>
        <time>1970-01-01T01:00:00Z</time>
      </trkpt>
      <trkpt lat="62.509617" lon="14.191782">
        <ele>453.182</ele>
        <time>1970-01-01T01:00:00Z</time>
      </trkpt>
      <trkpt lat="62.509576" lon="14.191967">
        <ele>453.636</ele>
        <time>1970-01-01T01:00:00Z</time>
      </trkpt>
      <trkpt lat="62.509493" lon="14.192069">
        <ele>454.182</ele>
        <time>1970-01-01T01:00:00Z</time>
      </trkpt>
      <trkpt lat="62.509474" lon="14.192298">
        <ele>454.727</ele>
        <time>1970-01-01T01:00:00Z</time>
      </trkpt>
      <trkpt lat="62.509443" lon="14.192501">
        <ele>455.182</ele>
        <time>1970-01-01T01:00:00Z</time>
      </trkpt>
      <trkpt lat="62.509387" lon="14.192653">
        <ele>455.636</ele>
        <time>1970-01-01T01:00:00Z</time>
      </trkpt>
      <trkpt lat="62.509376" lon="14.192908">
        <ele>456.182</ele>
        <time>1970-01-01T01:00:00Z</time>
      </trkpt>
      <trkpt lat="62.509319" lon="14.193102">
        <ele>456.545</ele>
        <time>1970-01-01T01:00:00Z</time>
      </trkpt>
      <trkpt lat="62.50925" lon="14.193235">
        <ele>456.909</ele>
        <time>1970-01-01T01:00:00Z</time>
      </trkpt>
      <trkpt lat="62.50919" lon="14.193385">
        <ele>457.091</ele>
        <time>1970-01-01T01:00:00Z</time>
      </trkpt>
      <trkpt lat="62.509141" lon="14.193592">
        <ele>457.273</ele>
        <time>1970-01-01T01:00:00Z</time>
      </trkpt>
      <trkpt lat="62.509099" lon="14.193889">
        <ele>457.636</ele>
        <time>1970-01-01T01:00:00Z</time>
      </trkpt>
      <trkpt lat="62.509072" lon="14.194091">
        <ele>458</ele>
        <time>1970-01-01T01:00:00Z</time>
      </trkpt>
      <trkpt lat="62.509029" lon="14.194314">
        <ele>458.273</ele>
        <time>1970-01-01T01:00:00Z</time>
      </trkpt>
      <trkpt lat="62.508944" lon="14.194454">
        <ele>458.545</ele>
        <time>1970-01-01T01:00:00Z</time>
      </trkpt>
      <trkpt lat="62.508849" lon="14.194414">
        <ele>458.818</ele>
        <time>1970-01-01T01:00:00Z</time>
      </trkpt>
      <trkpt lat="62.50876" lon="14.19433">
        <ele>459.091</ele>
        <time>1970-01-01T01:00:00Z</time>
      </trkpt>
      <trkpt lat="62.508679" lon="14.194235">
        <ele>459.273</ele>
        <time>1970-01-01T01:00:00Z</time>
      </trkpt>
      <trkpt lat="62.508618" lon="14.194062">
        <ele>459.455</ele>
        <time>1970-01-01T01:00:00Z</time>
      </trkpt>
      <trkpt lat="62.508555" lon="14.193916">
        <ele>459.636</ele>
        <time>1970-01-01T01:00:00Z</time>
      </trkpt>
      <trkpt lat="62.50849" lon="14.193758">
        <ele>459.727</ele>
        <time>1970-01-01T01:00:00Z</time>
      </trkpt>
      <trkpt lat="62.508427" lon="14.193551">
        <ele>459.818</ele>
        <time>1970-01-01T01:00:00Z</time>
      </trkpt>
      <trkpt lat="62.508352" lon="14.193423">
        <ele>459.727</ele>
        <time>1970-01-01T01:00:00Z</time>
      </trkpt>
      <trkpt lat="62.508294" lon="14.19325">
        <ele>459.636</ele>
        <time>1970-01-01T01:00:00Z</time>
      </trkpt>
      <trkpt lat="62.508248" lon="14.193055">
        <ele>459.364</ele>
        <time>1970-01-01T01:00:00Z</time>
      </trkpt>
      <trkpt lat="62.50821" lon="14.192876">
        <ele>459.091</ele>
        <time>1970-01-01T01:00:00Z</time>
      </trkpt>
      <trkpt lat="62.508173" lon="14.192691">
        <ele>459</ele>
        <time>1970-01-01T01:00:00Z</time>
      </trkpt>
      <trkpt lat="62.508157" lon="14.192481">
        <ele>458.909</ele>
        <time>1970-01-01T01:00:00Z</time>
      </trkpt>
      <trkpt lat="62.508119" lon="14.192268">
        <ele>458.818</ele>
        <time>1970-01-01T01:00:00Z</time>
      </trkpt>
      <trkpt lat="62.508068" lon="14.192066">
        <ele>458.727</ele>
        <time>1970-01-01T01:00:00Z</time>
      </trkpt>
      <trkpt lat="62.508022" lon="14.191851">
        <ele>458.636</ele>
        <time>1970-01-01T01:00:00Z</time>
      </trkpt>
      <trkpt lat="62.507925" lon="14.191699">
        <ele>458.636</ele>
        <time>1970-01-01T01:00:00Z</time>
      </trkpt>
      <trkpt lat="62.507822" lon="14.191577">
        <ele>458.636</ele>
        <time>1970-01-01T01:00:00Z</time>
      </trkpt>
      <trkpt lat="62.507729" lon="14.191509">
        <ele>457.727</ele>
        <time>1970-01-01T01:00:00Z</time>
      </trkpt>
      <trkpt lat="62.507635" lon="14.191392">
        <ele>456.636</ele>
        <time>1970-01-01T01:00:00Z</time>
      </trkpt>
      <trkpt lat="62.507515" lon="14.191346">
        <ele>455.727</ele>
        <time>1970-01-01T01:00:00Z</time>
      </trkpt>
      <trkpt lat="62.507388" lon="14.191329">
        <ele>454.818</ele>
        <time>1970-01-01T01:00:00Z</time>
      </trkpt>
      <trkpt lat="62.5073" lon="14.191259">
        <ele>453.727</ele>
        <time>1970-01-01T01:00:00Z</time>
      </trkpt>
      <trkpt lat="62.507183" lon="14.191122">
        <ele>452.636</ele>
        <time>1970-01-01T01:00:00Z</time>
      </trkpt>
      <trkpt lat="62.507085" lon="14.191072">
        <ele>451.636</ele>
        <time>1970-01-01T01:00:00Z</time>
      </trkpt>
      <trkpt lat="62.506998" lon="14.190968">
        <ele>450.636</ele>
        <time>1970-01-01T01:00:00Z</time>
      </trkpt>
      <trkpt lat="62.506916" lon="14.190857">
        <ele>449.636</ele>
        <time>1970-01-01T01:00:00Z</time>
      </trkpt>
      <trkpt lat="62.506835" lon="14.190678">
        <ele>448.636</ele>
        <time>1970-01-01T01:00:00Z</time>
      </trkpt>
      <trkpt lat="62.506765" lon="14.190514">
        <ele>447.636</ele>
        <time>1970-01-01T01:00:00Z</time>
      </trkpt>
      <trkpt lat="62.506706" lon="14.190357">
        <ele>447.545</ele>
        <time>1970-01-01T01:00:00Z</time>
      </trkpt>
      <trkpt lat="62.506636" lon="14.190186">
        <ele>447.636</ele>
        <time>1970-01-01T01:00:00Z</time>
      </trkpt>
      <trkpt lat="62.50655" lon="14.190072">
        <ele>447.727</ele>
        <time>1970-01-01T01:00:00Z</time>
      </trkpt>
      <trkpt lat="62.506507" lon="14.189898">
        <ele>447.909</ele>
        <time>1970-01-01T01:00:00Z</time>
      </trkpt>
      <trkpt lat="62.506475" lon="14.189649">
        <ele>448.091</ele>
        <time>1970-01-01T01:00:00Z</time>
      </trkpt>
      <trkpt lat="62.506457" lon="14.189391">
        <ele>448.273</ele>
        <time>1970-01-01T01:00:00Z</time>
      </trkpt>
      <trkpt lat="62.506446" lon="14.189169">
        <ele>448.364</ele>
        <time>1970-01-01T01:00:00Z</time>
      </trkpt>
      <trkpt lat="62.50644" lon="14.188974">
        <ele>448.545</ele>
        <time>1970-01-01T01:00:00Z</time>
      </trkpt>
      <trkpt lat="62.506444" lon="14.188761">
        <ele>448.818</ele>
        <time>1970-01-01T01:00:00Z</time>
      </trkpt>
      <trkpt lat="62.506416" lon="14.188551">
        <ele>449.091</ele>
        <time>1970-01-01T01:00:00Z</time>
      </trkpt>
      <trkpt lat="62.506358" lon="14.188371">
        <ele>449.364</ele>
        <time>1970-01-01T01:00:00Z</time>
      </trkpt>
      <trkpt lat="62.506307" lon="14.188193">
        <ele>449.636</ele>
        <time>1970-01-01T01:00:00Z</time>
      </trkpt>
      <trkpt lat="62.506246" lon="14.18803">
        <ele>450.182</ele>
        <time>1970-01-01T01:00:00Z</time>
      </trkpt>
      <trkpt lat="62.506181" lon="14.187838">
        <ele>450.727</ele>
        <time>1970-01-01T01:00:00Z</time>
      </trkpt>
      <trkpt lat="62.506127" lon="14.187627">
        <ele>451.182</ele>
        <time>1970-01-01T01:00:00Z</time>
      </trkpt>
      <trkpt lat="62.506108" lon="14.187383">
        <ele>451.818</ele>
        <time>1970-01-01T01:00:00Z</time>
      </trkpt>
      <trkpt lat="62.506116" lon="14.187155">
        <ele>452.455</ele>
        <time>1970-01-01T01:00:00Z</time>
      </trkpt>
      <trkpt lat="62.506133" lon="14.18694">
        <ele>453.091</ele>
        <time>1970-01-01T01:00:00Z</time>
      </trkpt>
      <trkpt lat="62.506151" lon="14.186638">
        <ele>453.909</ele>
        <time>1970-01-01T01:00:00Z</time>
      </trkpt>
      <trkpt lat="62.506125" lon="14.186362">
        <ele>454.636</ele>
        <time>1970-01-01T01:00:00Z</time>
      </trkpt>
      <trkpt lat="62.506107" lon="14.18615">
        <ele>455.364</ele>
        <time>1970-01-01T01:00:00Z</time>
      </trkpt>
      <trkpt lat="62.506137" lon="14.18595">
        <ele>456.091</ele>
        <time>1970-01-01T01:00:00Z</time>
      </trkpt>
      <trkpt lat="62.506163" lon="14.185729">
        <ele>456.818</ele>
        <time>1970-01-01T01:00:00Z</time>
      </trkpt>
      <trkpt lat="62.506171" lon="14.185479">
        <ele>457.273</ele>
        <time>1970-01-01T01:00:00Z</time>
      </trkpt>
      <trkpt lat="62.506196" lon="14.185223">
        <ele>457.727</ele>
        <time>1970-01-01T01:00:00Z</time>
      </trkpt>
      <trkpt lat="62.506212" lon="14.184989">
        <ele>457.818</ele>
        <time>1970-01-01T01:00:00Z</time>
      </trkpt>
      <trkpt lat="62.506217" lon="14.184779">
        <ele>458.091</ele>
        <time>1970-01-01T01:00:00Z</time>
      </trkpt>
      <trkpt lat="62.506239" lon="14.18458">
        <ele>458.364</ele>
        <time>1970-01-01T01:00:00Z</time>
      </trkpt>
      <trkpt lat="62.506268" lon="14.184361">
        <ele>458.273</ele>
        <time>1970-01-01T01:00:00Z</time>
      </trkpt>
      <trkpt lat="62.506293" lon="14.184139">
        <ele>457.909</ele>
        <time>1970-01-01T01:00:00Z</time>
      </trkpt>
      <trkpt lat="62.506303" lon="14.183924">
        <ele>457.909</ele>
        <time>1970-01-01T01:00:00Z</time>
      </trkpt>
      <trkpt lat="62.506293" lon="14.183713">
        <ele>457.545</ele>
        <time>1970-01-01T01:00:00Z</time>
      </trkpt>
      <trkpt lat="62.506298" lon="14.183512">
        <ele>457.182</ele>
        <time>1970-01-01T01:00:00Z</time>
      </trkpt>
      <trkpt lat="62.506348" lon="14.183285">
        <ele>456.818</ele>
        <time>1970-01-01T01:00:00Z</time>
      </trkpt>
      <trkpt lat="62.506378" lon="14.183081">
        <ele>456.364</ele>
        <time>1970-01-01T01:00:00Z</time>
      </trkpt>
      <trkpt lat="62.506281" lon="14.18304">
        <ele>455.909</ele>
        <time>1970-01-01T01:00:00Z</time>
      </trkpt>
      <trkpt lat="62.506311" lon="14.182822">
        <ele>455.818</ele>
        <time>1970-01-01T01:00:00Z</time>
      </trkpt>
      <trkpt lat="62.506315" lon="14.182614">
        <ele>455.364</ele>
        <time>1970-01-01T01:00:00Z</time>
      </trkpt>
      <trkpt lat="62.506328" lon="14.182399">
        <ele>454.909</ele>
        <time>1970-01-01T01:00:00Z</time>
      </trkpt>
      <trkpt lat="62.506345" lon="14.182179">
        <ele>454.727</ele>
        <time>1970-01-01T01:00:00Z</time>
      </trkpt>
      <trkpt lat="62.506367" lon="14.181969">
        <ele>454.545</ele>
        <time>1970-01-01T01:00:00Z</time>
      </trkpt>
      <trkpt lat="62.506414" lon="14.181777">
        <ele>454</ele>
        <time>1970-01-01T01:00:00Z</time>
      </trkpt>
      <trkpt lat="62.506397" lon="14.181556">
        <ele>453.818</ele>
        <time>1970-01-01T01:00:00Z</time>
      </trkpt>
      <trkpt lat="62.506377" lon="14.181339">
        <ele>453.545</ele>
        <time>1970-01-01T01:00:00Z</time>
      </trkpt>
      <trkpt lat="62.506394" lon="14.181046">
        <ele>453.273</ele>
        <time>1970-01-01T01:00:00Z</time>
      </trkpt>
      <trkpt lat="62.506414" lon="14.180801">
        <ele>453.091</ele>
        <time>1970-01-01T01:00:00Z</time>
      </trkpt>
      <trkpt lat="62.506505" lon="14.180705">
        <ele>452.909</ele>
        <time>1970-01-01T01:00:00Z</time>
      </trkpt>
      <trkpt lat="62.506591" lon="14.180584">
        <ele>452.545</ele>
        <time>1970-01-01T01:00:00Z</time>
      </trkpt>
      <trkpt lat="62.506643" lon="14.180408">
        <ele>452.182</ele>
        <time>1970-01-01T01:00:00Z</time>
      </trkpt>
      <trkpt lat="62.506668" lon="14.180167">
        <ele>451.818</ele>
        <time>1970-01-01T01:00:00Z</time>
      </trkpt>
      <trkpt lat="62.506638" lon="14.179944">
        <ele>451.545</ele>
        <time>1970-01-01T01:00:00Z</time>
      </trkpt>
      <trkpt lat="62.506597" lon="14.179727">
        <ele>451.091</ele>
        <time>1970-01-01T01:00:00Z</time>
      </trkpt>
      <trkpt lat="62.506584" lon="14.179487">
        <ele>450.636</ele>
        <time>1970-01-01T01:00:00Z</time>
      </trkpt>
      <trkpt lat="62.506596" lon="14.179275">
        <ele>450.182</ele>
        <time>1970-01-01T01:00:00Z</time>
      </trkpt>
      <trkpt lat="62.506589" lon="14.179079">
        <ele>449.818</ele>
        <time>1970-01-01T01:00:00Z</time>
      </trkpt>
      <trkpt lat="62.506587" lon="14.178881">
        <ele>449.455</ele>
        <time>1970-01-01T01:00:00Z</time>
      </trkpt>
      <trkpt lat="62.506624" lon="14.178679">
        <ele>449.091</ele>
        <time>1970-01-01T01:00:00Z</time>
      </trkpt>
      <trkpt lat="62.506693" lon="14.178535">
        <ele>448.455</ele>
        <time>1970-01-01T01:00:00Z</time>
      </trkpt>
      <trkpt lat="62.506793" lon="14.178465">
        <ele>448</ele>
        <time>1970-01-01T01:00:00Z</time>
      </trkpt>
      <trkpt lat="62.506871" lon="14.178322">
        <ele>447.455</ele>
        <time>1970-01-01T01:00:00Z</time>
      </trkpt>
      <trkpt lat="62.506932" lon="14.178146">
        <ele>446.909</ele>
        <time>1970-01-01T01:00:00Z</time>
      </trkpt>
      <trkpt lat="62.50703" lon="14.178105">
        <ele>446.364</ele>
        <time>1970-01-01T01:00:00Z</time>
      </trkpt>
      <trkpt lat="62.507139" lon="14.178067">
        <ele>446</ele>
        <time>1970-01-01T01:00:00Z</time>
      </trkpt>
      <trkpt lat="62.507226" lon="14.177991">
        <ele>445.636</ele>
        <time>1970-01-01T01:00:00Z</time>
      </trkpt>
      <trkpt lat="62.507357" lon="14.177858">
        <ele>445.273</ele>
        <time>1970-01-01T01:00:00Z</time>
      </trkpt>
      <trkpt lat="62.507453" lon="14.177735">
        <ele>444.818</ele>
        <time>1970-01-01T01:00:00Z</time>
      </trkpt>
      <trkpt lat="62.507551" lon="14.177647">
        <ele>444.364</ele>
        <time>1970-01-01T01:00:00Z</time>
      </trkpt>
      <trkpt lat="62.50766" lon="14.17758">
        <ele>443.909</ele>
        <time>1970-01-01T01:00:00Z</time>
      </trkpt>
      <trkpt lat="62.507782" lon="14.177536">
        <ele>443.727</ele>
        <time>1970-01-01T01:00:00Z</time>
      </trkpt>
      <trkpt lat="62.5079" lon="14.177502">
        <ele>443.545</ele>
        <time>1970-01-01T01:00:00Z</time>
      </trkpt>
      <trkpt lat="62.508001" lon="14.177449">
        <ele>443.455</ele>
        <time>1970-01-01T01:00:00Z</time>
      </trkpt>
      <trkpt lat="62.508096" lon="14.177377">
        <ele>443.364</ele>
        <time>1970-01-01T01:00:00Z</time>
      </trkpt>
      <trkpt lat="62.508198" lon="14.177353">
        <ele>443.273</ele>
        <time>1970-01-01T01:00:00Z</time>
      </trkpt>
      <trkpt lat="62.508302" lon="14.177365">
        <ele>443.182</ele>
        <time>1970-01-01T01:00:00Z</time>
      </trkpt>
      <trkpt lat="62.508414" lon="14.177382">
        <ele>443.091</ele>
        <time>1970-01-01T01:00:00Z</time>
      </trkpt>
      <trkpt lat="62.508533" lon="14.177372">
        <ele>442.909</ele>
        <time>1970-01-01T01:00:00Z</time>
      </trkpt>
      <trkpt lat="62.508656" lon="14.17733">
        <ele>442.818</ele>
        <time>1970-01-01T01:00:00Z</time>
      </trkpt>
      <trkpt lat="62.50875" lon="14.177296">
        <ele>442.727</ele>
        <time>1970-01-01T01:00:00Z</time>
      </trkpt>
      <trkpt lat="62.508854" lon="14.177264">
        <ele>442.636</ele>
        <time>1970-01-01T01:00:00Z</time>
      </trkpt>
      <trkpt lat="62.508949" lon="14.177159">
        <ele>442.545</ele>
        <time>1970-01-01T01:00:00Z</time>
      </trkpt>
      <trkpt lat="62.50901" lon="14.177012">
        <ele>442.455</ele>
        <time>1970-01-01T01:00:00Z</time>
      </trkpt>
      <trkpt lat="62.509059" lon="14.176837">
        <ele>442.364</ele>
        <time>1970-01-01T01:00:00Z</time>
      </trkpt>
      <trkpt lat="62.509115" lon="14.176621">
        <ele>442.273</ele>
        <time>1970-01-01T01:00:00Z</time>
      </trkpt>
      <trkpt lat="62.509161" lon="14.176413">
        <ele>442.364</ele>
        <time>1970-01-01T01:00:00Z</time>
      </trkpt>
      <trkpt lat="62.509229" lon="14.176239">
        <ele>442.455</ele>
        <time>1970-01-01T01:00:00Z</time>
      </trkpt>
      <trkpt lat="62.509321" lon="14.176064">
        <ele>442.545</ele>
        <time>1970-01-01T01:00:00Z</time>
      </trkpt>
      <trkpt lat="62.50942" lon="14.175975">
        <ele>442.727</ele>
        <time>1970-01-01T01:00:00Z</time>
      </trkpt>
      <trkpt lat="62.509514" lon="14.175886">
        <ele>442.909</ele>
        <time>1970-01-01T01:00:00Z</time>
      </trkpt>
      <trkpt lat="62.509594" lon="14.175788">
        <ele>443.091</ele>
        <time>1970-01-01T01:00:00Z</time>
      </trkpt>
      <trkpt lat="62.509673" lon="14.175676">
        <ele>443.273</ele>
        <time>1970-01-01T01:00:00Z</time>
      </trkpt>
      <trkpt lat="62.509738" lon="14.175507">
        <ele>443.455</ele>
        <time>1970-01-01T01:00:00Z</time>
      </trkpt>
      <trkpt lat="62.509808" lon="14.175345">
        <ele>443.636</ele>
        <time>1970-01-01T01:00:00Z</time>
      </trkpt>
      <trkpt lat="62.509881" lon="14.175196">
        <ele>443.818</ele>
        <time>1970-01-01T01:00:00Z</time>
      </trkpt>
      <trkpt lat="62.509972" lon="14.175073">
        <ele>444</ele>
        <time>1970-01-01T01:00:00Z</time>
      </trkpt>
      <trkpt lat="62.510073" lon="14.175001">
        <ele>444.364</ele>
        <time>1970-01-01T01:00:00Z</time>
      </trkpt>
      <trkpt lat="62.510161" lon="14.174923">
        <ele>444.727</ele>
        <time>1970-01-01T01:00:00Z</time>
      </trkpt>
      <trkpt lat="62.510245" lon="14.174834">
        <ele>445.091</ele>
        <time>1970-01-01T01:00:00Z</time>
      </trkpt>
      <trkpt lat="62.510335" lon="14.174728">
        <ele>445.455</ele>
        <time>1970-01-01T01:00:00Z</time>
      </trkpt>
      <trkpt lat="62.510422" lon="14.174622">
        <ele>445.818</ele>
        <time>1970-01-01T01:00:00Z</time>
      </trkpt>
      <trkpt lat="62.510522" lon="14.174503">
        <ele>446.182</ele>
        <time>1970-01-01T01:00:00Z</time>
      </trkpt>
      <trkpt lat="62.510613" lon="14.174379">
        <ele>446.545</ele>
        <time>1970-01-01T01:00:00Z</time>
      </trkpt>
      <trkpt lat="62.510722" lon="14.174281">
        <ele>446.909</ele>
        <time>1970-01-01T01:00:00Z</time>
      </trkpt>
      <trkpt lat="62.510839" lon="14.174181">
        <ele>447.727</ele>
        <time>1970-01-01T01:00:00Z</time>
      </trkpt>
      <trkpt lat="62.510922" lon="14.174103">
        <ele>448.545</ele>
        <time>1970-01-01T01:00:00Z</time>
      </trkpt>
      <trkpt lat="62.511036" lon="14.174038">
        <ele>449.364</ele>
        <time>1970-01-01T01:00:00Z</time>
      </trkpt>
      <trkpt lat="62.511121" lon="14.173935">
        <ele>449.818</ele>
        <time>1970-01-01T01:00:00Z</time>
      </trkpt>
      <trkpt lat="62.511219" lon="14.173907">
        <ele>450.273</ele>
        <time>1970-01-01T01:00:00Z</time>
      </trkpt>
      <trkpt lat="62.511308" lon="14.173821">
        <ele>450.727</ele>
        <time>1970-01-01T01:00:00Z</time>
      </trkpt>
      <trkpt lat="62.511382" lon="14.1737">
        <ele>451.182</ele>
        <time>1970-01-01T01:00:00Z</time>
      </trkpt>
      <trkpt lat="62.51147" lon="14.173612">
        <ele>451.636</ele>
        <time>1970-01-01T01:00:00Z</time>
      </trkpt>
      <trkpt lat="62.51156" lon="14.173621">
        <ele>452.091</ele>
        <time>1970-01-01T01:00:00Z</time>
      </trkpt>
      <trkpt lat="62.511622" lon="14.173799">
        <ele>452.545</ele>
        <time>1970-01-01T01:00:00Z</time>
      </trkpt>
      <trkpt lat="62.511656" lon="14.174033">
        <ele>453</ele>
        <time>1970-01-01T01:00:00Z</time>
      </trkpt>
      <trkpt lat="62.511666" lon="14.174228">
        <ele>453</ele>
        <time>1970-01-01T01:00:00Z</time>
      </trkpt>
      <trkpt lat="62.511698" lon="14.174427">
        <ele>453</ele>
        <time>1970-01-01T01:00:00Z</time>
      </trkpt>
      <trkpt lat="62.511763" lon="14.174632">
        <ele>453</ele>
        <time>1970-01-01T01:00:00Z</time>
      </trkpt>
      <trkpt lat="62.511819" lon="14.174875">
        <ele>453</ele>
        <time>1970-01-01T01:00:00Z</time>
      </trkpt>
      <trkpt lat="62.511868" lon="14.17512">
        <ele>453</ele>
        <time>1970-01-01T01:00:00Z</time>
      </trkpt>
      <trkpt lat="62.511921" lon="14.175338">
        <ele>453</ele>
        <time>1970-01-01T01:00:00Z</time>
      </trkpt>
      <trkpt lat="62.511977" lon="14.175497">
        <ele>452.909</ele>
        <time>1970-01-01T01:00:00Z</time>
      </trkpt>
      <trkpt lat="62.512016" lon="14.175682">
        <ele>452.818</ele>
        <time>1970-01-01T01:00:00Z</time>
      </trkpt>
      <trkpt lat="62.511959" lon="14.175864">
        <ele>452.727</ele>
        <time>1970-01-01T01:00:00Z</time>
      </trkpt>
      <trkpt lat="62.511938" lon="14.17607">
        <ele>452.636</ele>
        <time>1970-01-01T01:00:00Z</time>
      </trkpt>
      <trkpt lat="62.511905" lon="14.176261">
        <ele>452.364</ele>
        <time>1970-01-01T01:00:00Z</time>
      </trkpt>
      <trkpt lat="62.511859" lon="14.1765">
        <ele>452.091</ele>
        <time>1970-01-01T01:00:00Z</time>
      </trkpt>
      <trkpt lat="62.511819" lon="14.176697">
        <ele>451.818</ele>
        <time>1970-01-01T01:00:00Z</time>
      </trkpt>
      <trkpt lat="62.511776" lon="14.176874">
        <ele>451.545</ele>
        <time>1970-01-01T01:00:00Z</time>
      </trkpt>
      <trkpt lat="62.511744" lon="14.177058">
        <ele>451.091</ele>
        <time>1970-01-01T01:00:00Z</time>
      </trkpt>
      <trkpt lat="62.511731" lon="14.177292">
        <ele>450.636</ele>
        <time>1970-01-01T01:00:00Z</time>
      </trkpt>
      <trkpt lat="62.511702" lon="14.177538">
        <ele>450.182</ele>
        <time>1970-01-01T01:00:00Z</time>
      </trkpt>
      <trkpt lat="62.511672" lon="14.177723">
        <ele>449.545</ele>
        <time>1970-01-01T01:00:00Z</time>
      </trkpt>
      <trkpt lat="62.511639" lon="14.177952">
        <ele>448.909</ele>
        <time>1970-01-01T01:00:00Z</time>
      </trkpt>
      <trkpt lat="62.511613" lon="14.17821">
        <ele>448.273</ele>
        <time>1970-01-01T01:00:00Z</time>
      </trkpt>
      <trkpt lat="62.511579" lon="14.178391">
        <ele>447.636</ele>
        <time>1970-01-01T01:00:00Z</time>
      </trkpt>
      <trkpt lat="62.511545" lon="14.178611">
        <ele>447.091</ele>
        <time>1970-01-01T01:00:00Z</time>
      </trkpt>
      <trkpt lat="62.511505" lon="14.178828">
        <ele>446.545</ele>
        <time>1970-01-01T01:00:00Z</time>
      </trkpt>
      <trkpt lat="62.511506" lon="14.179045">
        <ele>446</ele>
        <time>1970-01-01T01:00:00Z</time>
      </trkpt>
      <trkpt lat="62.511558" lon="14.179243">
        <ele>445.364</ele>
        <time>1970-01-01T01:00:00Z</time>
      </trkpt>
      <trkpt lat="62.511616" lon="14.179425">
        <ele>444.909</ele>
        <time>1970-01-01T01:00:00Z</time>
      </trkpt>
      <trkpt lat="62.511677" lon="14.179659">
        <ele>444.455</ele>
        <time>1970-01-01T01:00:00Z</time>
      </trkpt>
      <trkpt lat="62.511698" lon="14.179849">
        <ele>444</ele>
        <time>1970-01-01T01:00:00Z</time>
      </trkpt>
      <trkpt lat="62.511587" lon="14.180284">
        <ele>443.818</ele>
        <time>1970-01-01T01:00:00Z</time>
      </trkpt>
      <trkpt lat="62.511557" lon="14.180561">
        <ele>443.636</ele>
        <time>1970-01-01T01:00:00Z</time>
      </trkpt>
      <trkpt lat="62.511508" lon="14.180836">
        <ele>443.545</ele>
        <time>1970-01-01T01:00:00Z</time>
      </trkpt>
      <trkpt lat="62.511489" lon="14.181031">
        <ele>443.455</ele>
        <time>1970-01-01T01:00:00Z</time>
      </trkpt>
      <trkpt lat="62.511433" lon="14.181216">
        <ele>443.455</ele>
        <time>1970-01-01T01:00:00Z</time>
      </trkpt>
      <trkpt lat="62.511385" lon="14.181395">
        <ele>443.455</ele>
        <time>1970-01-01T01:00:00Z</time>
      </trkpt>
      <trkpt lat="62.511334" lon="14.181632">
        <ele>443.455</ele>
        <time>1970-01-01T01:00:00Z</time>
      </trkpt>
      <trkpt lat="62.511293" lon="14.181859">
        <ele>443.545</ele>
        <time>1970-01-01T01:00:00Z</time>
      </trkpt>
      <trkpt lat="62.51125" lon="14.182078">
        <ele>443.727</ele>
        <time>1970-01-01T01:00:00Z</time>
      </trkpt>
      <trkpt lat="62.511215" lon="14.182264">
        <ele>443.909</ele>
        <time>1970-01-01T01:00:00Z</time>
      </trkpt>
      <trkpt lat="62.51118" lon="14.182447">
        <ele>444.091</ele>
        <time>1970-01-01T01:00:00Z</time>
      </trkpt>
      <trkpt lat="62.511146" lon="14.182651">
        <ele>444.273</ele>
        <time>1970-01-01T01:00:00Z</time>
      </trkpt>
      <trkpt lat="62.511122" lon="14.182845">
        <ele>444.545</ele>
        <time>1970-01-01T01:00:00Z</time>
      </trkpt>
      <trkpt lat="62.511102" lon="14.183044">
        <ele>444.727</ele>
        <time>1970-01-01T01:00:00Z</time>
      </trkpt>
      <trkpt lat="62.511088" lon="14.183304">
        <ele>444.909</ele>
        <time>1970-01-01T01:00:00Z</time>
      </trkpt>
      <trkpt lat="62.511082" lon="14.183512">
        <ele>445.182</ele>
        <time>1970-01-01T01:00:00Z</time>
      </trkpt>
      <trkpt lat="62.511075" lon="14.183754">
        <ele>445.455</ele>
        <time>1970-01-01T01:00:00Z</time>
      </trkpt>
      <trkpt lat="62.511081" lon="14.184058">
        <ele>445.727</ele>
        <time>1970-01-01T01:00:00Z</time>
      </trkpt>
      <trkpt lat="62.511094" lon="14.18434">
        <ele>446</ele>
        <time>1970-01-01T01:00:00Z</time>
      </trkpt>
      <trkpt lat="62.511096" lon="14.184571">
        <ele>446.273</ele>
        <time>1970-01-01T01:00:00Z</time>
      </trkpt>
      <trkpt lat="62.511094" lon="14.184821">
        <ele>446.545</ele>
        <time>1970-01-01T01:00:00Z</time>
      </trkpt>
      <trkpt lat="62.51108" lon="14.185037">
        <ele>446.818</ele>
        <time>1970-01-01T01:00:00Z</time>
      </trkpt>
      <trkpt lat="62.511012" lon="14.185205">
        <ele>447.091</ele>
        <time>1970-01-01T01:00:00Z</time>
      </trkpt>
      <trkpt lat="62.510954" lon="14.185402">
        <ele>447.364</ele>
        <time>1970-01-01T01:00:00Z</time>
      </trkpt>
      <trkpt lat="62.510919" lon="14.185607">
        <ele>447.636</ele>
        <time>1970-01-01T01:00:00Z</time>
      </trkpt>
      <trkpt lat="62.510865" lon="14.185844">
        <ele>447.909</ele>
        <time>1970-01-01T01:00:00Z</time>
      </trkpt>
      <trkpt lat="62.510819" lon="14.186024">
        <ele>448.091</ele>
        <time>1970-01-01T01:00:00Z</time>
      </trkpt>
      <trkpt lat="62.510732" lon="14.186146">
        <ele>448.364</ele>
        <time>1970-01-01T01:00:00Z</time>
      </trkpt>
      <trkpt lat="62.510667" lon="14.186329">
        <ele>448.455</ele>
        <time>1970-01-01T01:00:00Z</time>
      </trkpt>
      <trkpt lat="62.510641" lon="14.186537">
        <ele>448.545</ele>
        <time>1970-01-01T01:00:00Z</time>
      </trkpt>
      <trkpt lat="62.510602" lon="14.186753">
        <ele>448.545</ele>
        <time>1970-01-01T01:00:00Z</time>
      </trkpt>
      <trkpt lat="62.510552" lon="14.186941">
        <ele>448.545</ele>
        <time>1970-01-01T01:00:00Z</time>
      </trkpt>
      <trkpt lat="62.510487" lon="14.187181">
        <ele>448.636</ele>
        <time>1970-01-01T01:00:00Z</time>
      </trkpt>
      <trkpt lat="62.510433" lon="14.18735">
        <ele>448.727</ele>
        <time>1970-01-01T01:00:00Z</time>
      </trkpt>
      <trkpt lat="62.510379" lon="14.187534">
        <ele>448.727</ele>
        <time>1970-01-01T01:00:00Z</time>
      </trkpt>
      <trkpt lat="62.510304" lon="14.187745">
        <ele>448.727</ele>
        <time>1970-01-01T01:00:00Z</time>
      </trkpt>
      <trkpt lat="62.510242" lon="14.187914">
        <ele>448.727</ele>
        <time>1970-01-01T01:00:00Z</time>
      </trkpt>
      <trkpt lat="62.510202" lon="14.188121">
        <ele>448.727</ele>
        <time>1970-01-01T01:00:00Z</time>
      </trkpt>
      <trkpt lat="62.510142" lon="14.188278">
        <ele>448.636</ele>
        <time>1970-01-01T01:00:00Z</time>
      </trkpt>
      <trkpt lat="62.510047" lon="14.188435">
        <ele>448.727</ele>
        <time>1970-01-01T01:00:00Z</time>
      </trkpt>
      <trkpt lat="62.510006" lon="14.188633">
        <ele>448.818</ele>
        <time>1970-01-01T01:00:00Z</time>
      </trkpt>
      <trkpt lat="62.509972" lon="14.18886">
        <ele>449</ele>
        <time>1970-01-01T01:00:00Z</time>
      </trkpt>
      <trkpt lat="62.509943" lon="14.189048">
        <ele>449.182</ele>
        <time>1970-01-01T01:00:00Z</time>
      </trkpt>
      <trkpt lat="62.509884" lon="14.189275">
        <ele>449.273</ele>
        <time>1970-01-01T01:00:00Z</time>
      </trkpt>
      <trkpt lat="62.509826" lon="14.189436">
        <ele>449.455</ele>
        <time>1970-01-01T01:00:00Z</time>
      </trkpt>
      <trkpt lat="62.509755" lon="14.189585">
        <ele>449.636</ele>
        <time>1970-01-01T01:00:00Z</time>
      </trkpt>
      <trkpt lat="62.509694" lon="14.189798">
        <ele>449.909</ele>
        <time>1970-01-01T01:00:00Z</time>
      </trkpt>
      <trkpt lat="62.509644" lon="14.189969">
        <ele>450.182</ele>
        <time>1970-01-01T01:00:00Z</time>
      </trkpt>
      <trkpt lat="62.509625" lon="14.19024">
        <ele>450.455</ele>
        <time>1970-01-01T01:00:00Z</time>
      </trkpt>
      <trkpt lat="62.509644" lon="14.190479">
        <ele>450.909</ele>
        <time>1970-01-01T01:00:00Z</time>
      </trkpt>
      <trkpt lat="62.50961" lon="14.190666">
        <ele>451.364</ele>
        <time>1970-01-01T01:00:00Z</time>
      </trkpt>
      <trkpt lat="62.509554" lon="14.190857">
        <ele>451.818</ele>
        <time>1970-01-01T01:00:00Z</time>
      </trkpt>
      <trkpt lat="62.509527" lon="14.191061">
        <ele>452.182</ele>
        <time>1970-01-01T01:00:00Z</time>
      </trkpt>
      <trkpt lat="62.509462" lon="14.191211">
        <ele>452.727</ele>
        <time>1970-01-01T01:00:00Z</time>
      </trkpt>
      <trkpt lat="62.509424" lon="14.191404">
        <ele>453.273</ele>
        <time>1970-01-01T01:00:00Z</time>
      </trkpt>
      <trkpt lat="62.509407" lon="14.191617">
        <ele>453.727</ele>
        <time>1970-01-01T01:00:00Z</time>
      </trkpt>
      <trkpt lat="62.509397" lon="14.191822">
        <ele>454.182</ele>
        <time>1970-01-01T01:00:00Z</time>
      </trkpt>
      <trkpt lat="62.509399" lon="14.192021">
        <ele>454.545</ele>
        <time>1970-01-01T01:00:00Z</time>
      </trkpt>
      <trkpt lat="62.50938" lon="14.192234">
        <ele>455</ele>
        <time>1970-01-01T01:00:00Z</time>
      </trkpt>
      <trkpt lat="62.509334" lon="14.192413">
        <ele>455.455</ele>
        <time>1970-01-01T01:00:00Z</time>
      </trkpt>
      <trkpt lat="62.509252" lon="14.192559">
        <ele>455.727</ele>
        <time>1970-01-01T01:00:00Z</time>
      </trkpt>
      <trkpt lat="62.509196" lon="14.192729">
        <ele>456.091</ele>
        <time>1970-01-01T01:00:00Z</time>
      </trkpt>
      <trkpt lat="62.509111" lon="14.192885">
        <ele>456.455</ele>
        <time>1970-01-01T01:00:00Z</time>
      </trkpt>
      <trkpt lat="62.509055" lon="14.193075">
        <ele>456.818</ele>
        <time>1970-01-01T01:00:00Z</time>
      </trkpt>
      <trkpt lat="62.509051" lon="14.193455">
        <ele>457.182</ele>
        <time>1970-01-01T01:00:00Z</time>
      </trkpt>
      <trkpt lat="62.509004" lon="14.193633">
        <ele>457.545</ele>
        <time>1970-01-01T01:00:00Z</time>
      </trkpt>
      <trkpt lat="62.508968" lon="14.19387">
        <ele>457.909</ele>
        <time>1970-01-01T01:00:00Z</time>
      </trkpt>
      <trkpt lat="62.508929" lon="14.194063">
        <ele>458.273</ele>
        <time>1970-01-01T01:00:00Z</time>
      </trkpt>
      <trkpt lat="62.508859" lon="14.194192">
        <ele>458.636</ele>
        <time>1970-01-01T01:00:00Z</time>
      </trkpt>
      <trkpt lat="62.508764" lon="14.194183">
        <ele>458.909</ele>
        <time>1970-01-01T01:00:00Z</time>
      </trkpt>
      <trkpt lat="62.508661" lon="14.194129">
        <ele>459.182</ele>
        <time>1970-01-01T01:00:00Z</time>
      </trkpt>
      <trkpt lat="62.508574" lon="14.194006">
        <ele>459.455</ele>
        <time>1970-01-01T01:00:00Z</time>
      </trkpt>
      <trkpt lat="62.508502" lon="14.193837">
        <ele>459.545</ele>
        <time>1970-01-01T01:00:00Z</time>
      </trkpt>
      <trkpt lat="62.508449" lon="14.193651">
        <ele>459.636</ele>
        <time>1970-01-01T01:00:00Z</time>
      </trkpt>
      <trkpt lat="62.508372" lon="14.193532">
        <ele>459.727</ele>
        <time>1970-01-01T01:00:00Z</time>
      </trkpt>
      <trkpt lat="62.508313" lon="14.193361">
        <ele>459.636</ele>
        <time>1970-01-01T01:00:00Z</time>
      </trkpt>
      <trkpt lat="62.508255" lon="14.193178">
        <ele>459.545</ele>
        <time>1970-01-01T01:00:00Z</time>
      </trkpt>
      <trkpt lat="62.508259" lon="14.192982">
        <ele>459.273</ele>
        <time>1970-01-01T01:00:00Z</time>
      </trkpt>
      <trkpt lat="62.508264" lon="14.192783">
        <ele>459</ele>
        <time>1970-01-01T01:00:00Z</time>
      </trkpt>
      <trkpt lat="62.508207" lon="14.192598">
        <ele>458.727</ele>
        <time>1970-01-01T01:00:00Z</time>
      </trkpt>
      <trkpt lat="62.508147" lon="14.192426">
        <ele>458.636</ele>
        <time>1970-01-01T01:00:00Z</time>
      </trkpt>
      <trkpt lat="62.508105" lon="14.192243">
        <ele>458.545</ele>
        <time>1970-01-01T01:00:00Z</time>
      </trkpt>
      <trkpt lat="62.508087" lon="14.192018">
        <ele>458.455</ele>
        <time>1970-01-01T01:00:00Z</time>
      </trkpt>
      <trkpt lat="62.508046" lon="14.191804">
        <ele>458.455</ele>
        <time>1970-01-01T01:00:00Z</time>
      </trkpt>
      <trkpt lat="62.507962" lon="14.19162">
        <ele>458.455</ele>
        <time>1970-01-01T01:00:00Z</time>
      </trkpt>
      <trkpt lat="62.50784" lon="14.191493">
        <ele>457.545</ele>
        <time>1970-01-01T01:00:00Z</time>
      </trkpt>
      <trkpt lat="62.507736" lon="14.191462">
        <ele>456.636</ele>
        <time>1970-01-01T01:00:00Z</time>
      </trkpt>
      <trkpt lat="62.507639" lon="14.191437">
        <ele>455.727</ele>
        <time>1970-01-01T01:00:00Z</time>
      </trkpt>
      <trkpt lat="62.507528" lon="14.191396">
        <ele>454.818</ele>
        <time>1970-01-01T01:00:00Z</time>
      </trkpt>
      <trkpt lat="62.507408" lon="14.191314">
        <ele>453.909</ele>
        <time>1970-01-01T01:00:00Z</time>
      </trkpt>
      <trkpt lat="62.507318" lon="14.191239">
        <ele>453</ele>
        <time>1970-01-01T01:00:00Z</time>
      </trkpt>
      <trkpt lat="62.507224" lon="14.191123">
        <ele>452</ele>
        <time>1970-01-01T01:00:00Z</time>
      </trkpt>
      <trkpt lat="62.507126" lon="14.190976">
        <ele>451</ele>
        <time>1970-01-01T01:00:00Z</time>
      </trkpt>
      <trkpt lat="62.507034" lon="14.190847">
        <ele>450</ele>
        <time>1970-01-01T01:00:00Z</time>
      </trkpt>
      <trkpt lat="62.506946" lon="14.190735">
        <ele>449</ele>
        <time>1970-01-01T01:00:00Z</time>
      </trkpt>
      <trkpt lat="62.506845" lon="14.190595">
        <ele>448</ele>
        <time>1970-01-01T01:00:00Z</time>
      </trkpt>
      <trkpt lat="62.506771" lon="14.190414">
        <ele>447.909</ele>
        <time>1970-01-01T01:00:00Z</time>
      </trkpt>
      <trkpt lat="62.50671" lon="14.190256">
        <ele>447.818</ele>
        <time>1970-01-01T01:00:00Z</time>
      </trkpt>
      <trkpt lat="62.506631" lon="14.190098">
        <ele>447.727</ele>
        <time>1970-01-01T01:00:00Z</time>
      </trkpt>
      <trkpt lat="62.506569" lon="14.189912">
        <ele>447.818</ele>
        <time>1970-01-01T01:00:00Z</time>
      </trkpt>
      <trkpt lat="62.506531" lon="14.189726">
        <ele>448</ele>
        <time>1970-01-01T01:00:00Z</time>
      </trkpt>
      <trkpt lat="62.506484" lon="14.189533">
        <ele>448.182</ele>
        <time>1970-01-01T01:00:00Z</time>
      </trkpt>
      <trkpt lat="62.506464" lon="14.189305">
        <ele>448.273</ele>
        <time>1970-01-01T01:00:00Z</time>
      </trkpt>
      <trkpt lat="62.506475" lon="14.189072">
        <ele>448.455</ele>
        <time>1970-01-01T01:00:00Z</time>
      </trkpt>
      <trkpt lat="62.506473" lon="14.188877">
        <ele>448.727</ele>
        <time>1970-01-01T01:00:00Z</time>
      </trkpt>
      <trkpt lat="62.506431" lon="14.188648">
        <ele>449</ele>
        <time>1970-01-01T01:00:00Z</time>
      </trkpt>
      <trkpt lat="62.506378" lon="14.188459">
        <ele>449.273</ele>
        <time>1970-01-01T01:00:00Z</time>
      </trkpt>
      <trkpt lat="62.506347" lon="14.188271">
        <ele>449.545</ele>
        <time>1970-01-01T01:00:00Z</time>
      </trkpt>
      <trkpt lat="62.506299" lon="14.188081">
        <ele>449.818</ele>
        <time>1970-01-01T01:00:00Z</time>
      </trkpt>
      <trkpt lat="62.50622" lon="14.187863">
        <ele>450.364</ele>
        <time>1970-01-01T01:00:00Z</time>
      </trkpt>
      <trkpt lat="62.50616" lon="14.187707">
        <ele>450.909</ele>
        <time>1970-01-01T01:00:00Z</time>
      </trkpt>
      <trkpt lat="62.506087" lon="14.187542">
        <ele>451.545</ele>
        <time>1970-01-01T01:00:00Z</time>
      </trkpt>
      <trkpt lat="62.506019" lon="14.187368">
        <ele>452.182</ele>
        <time>1970-01-01T01:00:00Z</time>
      </trkpt>
      <trkpt lat="62.506032" lon="14.187152">
        <ele>452.818</ele>
        <time>1970-01-01T01:00:00Z</time>
      </trkpt>
      <trkpt lat="62.506055" lon="14.186755">
        <ele>453.364</ele>
        <time>1970-01-01T01:00:00Z</time>
      </trkpt>
      <trkpt lat="62.506049" lon="14.186498">
        <ele>454.091</ele>
        <time>1970-01-01T01:00:00Z</time>
      </trkpt>
      <trkpt lat="62.506056" lon="14.186237">
        <ele>454.818</ele>
        <time>1970-01-01T01:00:00Z</time>
      </trkpt>
      <trkpt lat="62.506069" lon="14.186031">
        <ele>455.545</ele>
        <time>1970-01-01T01:00:00Z</time>
      </trkpt>
      <trkpt lat="62.506099" lon="14.185742">
        <ele>456.273</ele>
        <time>1970-01-01T01:00:00Z</time>
      </trkpt>
      <trkpt lat="62.506126" lon="14.18552">
        <ele>457</ele>
        <time>1970-01-01T01:00:00Z</time>
      </trkpt>
      <trkpt lat="62.506162" lon="14.185314">
        <ele>457.455</ele>
        <time>1970-01-01T01:00:00Z</time>
      </trkpt>
      <trkpt lat="62.506173" lon="14.185027">
        <ele>457.909</ele>
        <time>1970-01-01T01:00:00Z</time>
      </trkpt>
      <trkpt lat="62.506178" lon="14.184797">
        <ele>458.182</ele>
        <time>1970-01-01T01:00:00Z</time>
      </trkpt>
      <trkpt lat="62.506192" lon="14.184556">
        <ele>458.091</ele>
        <time>1970-01-01T01:00:00Z</time>
      </trkpt>
      <trkpt lat="62.506218" lon="14.184327">
        <ele>458</ele>
        <time>1970-01-01T01:00:00Z</time>
      </trkpt>
      <trkpt lat="62.506262" lon="14.184047">
        <ele>457.909</ele>
        <time>1970-01-01T01:00:00Z</time>
      </trkpt>
      <trkpt lat="62.506284" lon="14.183849">
        <ele>457.545</ele>
        <time>1970-01-01T01:00:00Z</time>
      </trkpt>
      <trkpt lat="62.506299" lon="14.183616">
        <ele>457.182</ele>
        <time>1970-01-01T01:00:00Z</time>
      </trkpt>
      <trkpt lat="62.506331" lon="14.183408">
        <ele>456.818</ele>
        <time>1970-01-01T01:00:00Z</time>
      </trkpt>
      <trkpt lat="62.506388" lon="14.183216">
        <ele>456.364</ele>
        <time>1970-01-01T01:00:00Z</time>
      </trkpt>
      <trkpt lat="62.506386" lon="14.182972">
        <ele>455.909</ele>
        <time>1970-01-01T01:00:00Z</time>
      </trkpt>
      <trkpt lat="62.506362" lon="14.182775">
        <ele>455.455</ele>
        <time>1970-01-01T01:00:00Z</time>
      </trkpt>
      <trkpt lat="62.506394" lon="14.182576">
        <ele>455</ele>
        <time>1970-01-01T01:00:00Z</time>
      </trkpt>
      <trkpt lat="62.506369" lon="14.182347">
        <ele>454.545</ele>
        <time>1970-01-01T01:00:00Z</time>
      </trkpt>
      <trkpt lat="62.506355" lon="14.18214">
        <ele>454.364</ele>
        <time>1970-01-01T01:00:00Z</time>
      </trkpt>
      <trkpt lat="62.506349" lon="14.181908">
        <ele>454.182</ele>
        <time>1970-01-01T01:00:00Z</time>
      </trkpt>
      <trkpt lat="62.506366" lon="14.181684">
        <ele>454</ele>
        <time>1970-01-01T01:00:00Z</time>
      </trkpt>
      <trkpt lat="62.506386" lon="14.18148">
        <ele>453.818</ele>
        <time>1970-01-01T01:00:00Z</time>
      </trkpt>
      <trkpt lat="62.506417" lon="14.18126">
        <ele>453.545</ele>
        <time>1970-01-01T01:00:00Z</time>
      </trkpt>
      <trkpt lat="62.506456" lon="14.181067">
        <ele>453.273</ele>
        <time>1970-01-01T01:00:00Z</time>
      </trkpt>
      <trkpt lat="62.506516" lon="14.180901">
        <ele>453.091</ele>
        <time>1970-01-01T01:00:00Z</time>
      </trkpt>
      <trkpt lat="62.506554" lon="14.180713">
        <ele>452.909</ele>
        <time>1970-01-01T01:00:00Z</time>
      </trkpt>
      <trkpt lat="62.506619" lon="14.180494">
        <ele>452.545</ele>
        <time>1970-01-01T01:00:00Z</time>
      </trkpt>
      <trkpt lat="62.506667" lon="14.180261">
        <ele>452.182</ele>
        <time>1970-01-01T01:00:00Z</time>
      </trkpt>
      <trkpt lat="62.506693" lon="14.180028">
        <ele>451.818</ele>
        <time>1970-01-01T01:00:00Z</time>
      </trkpt>
      <trkpt lat="62.506665" lon="14.179829">
        <ele>451.364</ele>
        <time>1970-01-01T01:00:00Z</time>
      </trkpt>
      <trkpt lat="62.50661" lon="14.179631">
        <ele>450.909</ele>
        <time>1970-01-01T01:00:00Z</time>
      </trkpt>
      <trkpt lat="62.506615" lon="14.179362">
        <ele>450.455</ele>
        <time>1970-01-01T01:00:00Z</time>
      </trkpt>
      <trkpt lat="62.506632" lon="14.179122">
        <ele>450</ele>
        <time>1970-01-01T01:00:00Z</time>
      </trkpt>
      <trkpt lat="62.506661" lon="14.17893">
        <ele>449.636</ele>
        <time>1970-01-01T01:00:00Z</time>
      </trkpt>
      <trkpt lat="62.506693" lon="14.178739">
        <ele>449.273</ele>
        <time>1970-01-01T01:00:00Z</time>
      </trkpt>
      <trkpt lat="62.506802" lon="14.178602">
        <ele>448.636</ele>
        <time>1970-01-01T01:00:00Z</time>
      </trkpt>
      <trkpt lat="62.506875" lon="14.178457">
        <ele>447.909</ele>
        <time>1970-01-01T01:00:00Z</time>
      </trkpt>
      <trkpt lat="62.506931" lon="14.178262">
        <ele>447.364</ele>
        <time>1970-01-01T01:00:00Z</time>
      </trkpt>
      <trkpt lat="62.507003" lon="14.178096">
        <ele>446.818</ele>
        <time>1970-01-01T01:00:00Z</time>
      </trkpt>
      <trkpt lat="62.507096" lon="14.178078">
        <ele>446.273</ele>
        <time>1970-01-01T01:00:00Z</time>
      </trkpt>
      <trkpt lat="62.507186" lon="14.178025">
        <ele>445.909</ele>
        <time>1970-01-01T01:00:00Z</time>
      </trkpt>
      <trkpt lat="62.507293" lon="14.177936">
        <ele>445.545</ele>
        <time>1970-01-01T01:00:00Z</time>
      </trkpt>
      <trkpt lat="62.507379" lon="14.177847">
        <ele>445.182</ele>
        <time>1970-01-01T01:00:00Z</time>
      </trkpt>
      <trkpt lat="62.507473" lon="14.17776">
        <ele>444.727</ele>
        <time>1970-01-01T01:00:00Z</time>
      </trkpt>
      <trkpt lat="62.507558" lon="14.177691">
        <ele>444.273</ele>
        <time>1970-01-01T01:00:00Z</time>
      </trkpt>
      <trkpt lat="62.507663" lon="14.177634">
        <ele>443.818</ele>
        <time>1970-01-01T01:00:00Z</time>
      </trkpt>
      <trkpt lat="62.507796" lon="14.177583">
        <ele>443.636</ele>
        <time>1970-01-01T01:00:00Z</time>
      </trkpt>
      <trkpt lat="62.507913" lon="14.17754">
        <ele>443.545</ele>
        <time>1970-01-01T01:00:00Z</time>
      </trkpt>
      <trkpt lat="62.508007" lon="14.177458">
        <ele>443.455</ele>
        <time>1970-01-01T01:00:00Z</time>
      </trkpt>
      <trkpt lat="62.508095" lon="14.177383">
        <ele>443.364</ele>
        <time>1970-01-01T01:00:00Z</time>
      </trkpt>
      <trkpt lat="62.508204" lon="14.177386">
        <ele>443.273</ele>
        <time>1970-01-01T01:00:00Z</time>
      </trkpt>
      <trkpt lat="62.508302" lon="14.177396">
        <ele>443.182</ele>
        <time>1970-01-01T01:00:00Z</time>
      </trkpt>
      <trkpt lat="62.508412" lon="14.177403">
        <ele>443.091</ele>
        <time>1970-01-01T01:00:00Z</time>
      </trkpt>
      <trkpt lat="62.508519" lon="14.177402">
        <ele>442.909</ele>
        <time>1970-01-01T01:00:00Z</time>
      </trkpt>
      <trkpt lat="62.508631" lon="14.177358">
        <ele>442.818</ele>
        <time>1970-01-01T01:00:00Z</time>
      </trkpt>
      <trkpt lat="62.508767" lon="14.177307">
        <ele>442.727</ele>
        <time>1970-01-01T01:00:00Z</time>
      </trkpt>
      <trkpt lat="62.508881" lon="14.177272">
        <ele>442.636</ele>
        <time>1970-01-01T01:00:00Z</time>
      </trkpt>
      <trkpt lat="62.508976" lon="14.177237">
        <ele>442.545</ele>
        <time>1970-01-01T01:00:00Z</time>
      </trkpt>
      <trkpt lat="62.509071" lon="14.177109">
        <ele>442.455</ele>
        <time>1970-01-01T01:00:00Z</time>
      </trkpt>
      <trkpt lat="62.509129" lon="14.176914">
        <ele>442.364</ele>
        <time>1970-01-01T01:00:00Z</time>
      </trkpt>
      <trkpt lat="62.509181" lon="14.176712">
        <ele>442.273</ele>
        <time>1970-01-01T01:00:00Z</time>
      </trkpt>
      <trkpt lat="62.509235" lon="14.17652">
        <ele>442.364</ele>
        <time>1970-01-01T01:00:00Z</time>
      </trkpt>
      <trkpt lat="62.509292" lon="14.176312">
        <ele>442.455</ele>
        <time>1970-01-01T01:00:00Z</time>
      </trkpt>
      <trkpt lat="62.509364" lon="14.176171">
        <ele>442.545</ele>
        <time>1970-01-01T01:00:00Z</time>
      </trkpt>
      <trkpt lat="62.509446" lon="14.176015">
        <ele>442.727</ele>
        <time>1970-01-01T01:00:00Z</time>
      </trkpt>
      <trkpt lat="62.509524" lon="14.1759">
        <ele>442.909</ele>
        <time>1970-01-01T01:00:00Z</time>
      </trkpt>
      <trkpt lat="62.509611" lon="14.175746">
        <ele>443.091</ele>
        <time>1970-01-01T01:00:00Z</time>
      </trkpt>
      <trkpt lat="62.509689" lon="14.175589">
        <ele>443.273</ele>
        <time>1970-01-01T01:00:00Z</time>
      </trkpt>
      <trkpt lat="62.509776" lon="14.175437">
        <ele>443.455</ele>
        <time>1970-01-01T01:00:00Z</time>
      </trkpt>
      <trkpt lat="62.509835" lon="14.175286">
        <ele>443.636</ele>
        <time>1970-01-01T01:00:00Z</time>
      </trkpt>
      <trkpt lat="62.509918" lon="14.17517">
        <ele>443.818</ele>
        <time>1970-01-01T01:00:00Z</time>
      </trkpt>
      <trkpt lat="62.510001" lon="14.175082">
        <ele>444</ele>
        <time>1970-01-01T01:00:00Z</time>
      </trkpt>
      <trkpt lat="62.510111" lon="14.175">
        <ele>444.364</ele>
        <time>1970-01-01T01:00:00Z</time>
      </trkpt>
      <trkpt lat="62.510196" lon="14.174923">
        <ele>444.727</ele>
        <time>1970-01-01T01:00:00Z</time>
      </trkpt>
      <trkpt lat="62.510284" lon="14.174845">
        <ele>445.091</ele>
        <time>1970-01-01T01:00:00Z</time>
      </trkpt>
      <trkpt lat="62.510379" lon="14.174731">
        <ele>445.455</ele>
        <time>1970-01-01T01:00:00Z</time>
      </trkpt>
      <trkpt lat="62.510465" lon="14.174638">
        <ele>445.818</ele>
        <time>1970-01-01T01:00:00Z</time>
      </trkpt>
      <trkpt lat="62.510548" lon="14.174552">
        <ele>446.182</ele>
        <time>1970-01-01T01:00:00Z</time>
      </trkpt>
      <trkpt lat="62.510643" lon="14.174453">
        <ele>446.545</ele>
        <time>1970-01-01T01:00:00Z</time>
      </trkpt>
      <trkpt lat="62.51074" lon="14.174363">
        <ele>446.909</ele>
        <time>1970-01-01T01:00:00Z</time>
      </trkpt>
      <trkpt lat="62.510848" lon="14.174263">
        <ele>447.727</ele>
        <time>1970-01-01T01:00:00Z</time>
      </trkpt>
      <trkpt lat="62.510965" lon="14.174185">
        <ele>448.545</ele>
        <time>1970-01-01T01:00:00Z</time>
      </trkpt>
      <trkpt lat="62.511068" lon="14.174101">
        <ele>449.364</ele>
        <time>1970-01-01T01:00:00Z</time>
      </trkpt>
      <trkpt lat="62.511175" lon="14.174006">
        <ele>449.818</ele>
        <time>1970-01-01T01:00:00Z</time>
      </trkpt>
      <trkpt lat="62.511276" lon="14.173903">
        <ele>450.273</ele>
        <time>1970-01-01T01:00:00Z</time>
      </trkpt>
      <trkpt lat="62.511363" lon="14.1738">
        <ele>450.727</ele>
        <time>1970-01-01T01:00:00Z</time>
      </trkpt>
      <trkpt lat="62.51145" lon="14.173719">
        <ele>451.182</ele>
        <time>1970-01-01T01:00:00Z</time>
      </trkpt>
      <trkpt lat="62.511536" lon="14.173604">
        <ele>451.636</ele>
        <time>1970-01-01T01:00:00Z</time>
      </trkpt>
      <trkpt lat="62.511633" lon="14.173599">
        <ele>452.091</ele>
        <time>1970-01-01T01:00:00Z</time>
      </trkpt>
      <trkpt lat="62.511706" lon="14.173729">
        <ele>452.545</ele>
        <time>1970-01-01T01:00:00Z</time>
      </trkpt>
      <trkpt lat="62.511709" lon="14.173924">
        <ele>453</ele>
        <time>1970-01-01T01:00:00Z</time>
      </trkpt>
      <trkpt lat="62.51171" lon="14.174166">
        <ele>453</ele>
        <time>1970-01-01T01:00:00Z</time>
      </trkpt>
      <trkpt lat="62.51175" lon="14.174346">
        <ele>453</ele>
        <time>1970-01-01T01:00:00Z</time>
      </trkpt>
      <trkpt lat="62.5118" lon="14.174562">
        <ele>453</ele>
        <time>1970-01-01T01:00:00Z</time>
      </trkpt>
      <trkpt lat="62.511845" lon="14.174785">
        <ele>453</ele>
        <time>1970-01-01T01:00:00Z</time>
      </trkpt>
      <trkpt lat="62.511892" lon="14.174972">
        <ele>453</ele>
        <time>1970-01-01T01:00:00Z</time>
      </trkpt>
      <trkpt lat="62.511958" lon="14.175192">
        <ele>453</ele>
        <time>1970-01-01T01:00:00Z</time>
      </trkpt>
      <trkpt lat="62.512021" lon="14.175333">
        <ele>452.909</ele>
        <time>1970-01-01T01:00:00Z</time>
      </trkpt>
      <trkpt lat="62.512026" lon="14.175538">
        <ele>452.818</ele>
        <time>1970-01-01T01:00:00Z</time>
      </trkpt>
      <trkpt lat="62.51207" lon="14.175722">
        <ele>452.727</ele>
        <time>1970-01-01T01:00:00Z</time>
      </trkpt>
      <trkpt lat="62.512057" lon="14.175939">
        <ele>452.636</ele>
        <time>1970-01-01T01:00:00Z</time>
      </trkpt>
      <trkpt lat="62.512018" lon="14.176144">
        <ele>452.545</ele>
        <time>1970-01-01T01:00:00Z</time>
      </trkpt>
      <trkpt lat="62.511932" lon="14.176334">
        <ele>452.273</ele>
        <time>1970-01-01T01:00:00Z</time>
      </trkpt>
      <trkpt lat="62.511856" lon="14.176536">
        <ele>452</ele>
        <time>1970-01-01T01:00:00Z</time>
      </trkpt>
      <trkpt lat="62.511781" lon="14.176696">
        <ele>451.727</ele>
        <time>1970-01-01T01:00:00Z</time>
      </trkpt>
      <trkpt lat="62.511718" lon="14.176837">
        <ele>451.455</ele>
        <time>1970-01-01T01:00:00Z</time>
      </trkpt>
      <trkpt lat="62.511663" lon="14.177061">
        <ele>451</ele>
        <time>1970-01-01T01:00:00Z</time>
      </trkpt>
      <trkpt lat="62.511612" lon="14.177256">
        <ele>450.545</ele>
        <time>1970-01-01T01:00:00Z</time>
      </trkpt>
      <trkpt lat="62.511561" lon="14.177485">
        <ele>450.182</ele>
        <time>1970-01-01T01:00:00Z</time>
      </trkpt>
      <trkpt lat="62.511544" lon="14.177696">
        <ele>449.818</ele>
        <time>1970-01-01T01:00:00Z</time>
      </trkpt>
      <trkpt lat="62.511553" lon="14.177897">
        <ele>449.182</ele>
        <time>1970-01-01T01:00:00Z</time>
      </trkpt>
      <trkpt lat="62.511539" lon="14.178109">
        <ele>448.545</ele>
        <time>1970-01-01T01:00:00Z</time>
      </trkpt>
      <trkpt lat="62.511501" lon="14.178327">
        <ele>447.909</ele>
        <time>1970-01-01T01:00:00Z</time>
      </trkpt>
      <trkpt lat="62.511485" lon="14.178535">
        <ele>447.455</ele>
        <time>1970-01-01T01:00:00Z</time>
      </trkpt>
      <trkpt lat="62.511476" lon="14.178759">
        <ele>446.909</ele>
        <time>1970-01-01T01:00:00Z</time>
      </trkpt>
      <trkpt lat="62.511479" lon="14.178961">
        <ele>446.364</ele>
        <time>1970-01-01T01:00:00Z</time>
      </trkpt>
      <trkpt lat="62.511496" lon="14.179157">
        <ele>445.818</ele>
        <time>1970-01-01T01:00:00Z</time>
      </trkpt>
      <trkpt lat="62.511542" lon="14.179375">
        <ele>445.455</ele>
        <time>1970-01-01T01:00:00Z</time>
      </trkpt>
      <trkpt lat="62.511601" lon="14.179566">
        <ele>445</ele>
        <time>1970-01-01T01:00:00Z</time>
      </trkpt>
      <trkpt lat="62.511661" lon="14.17972">
        <ele>444.545</ele>
        <time>1970-01-01T01:00:00Z</time>
      </trkpt>
      <trkpt lat="62.5117" lon="14.179963">
        <ele>444.091</ele>
        <time>1970-01-01T01:00:00Z</time>
      </trkpt>
      <trkpt lat="62.511694" lon="14.180177">
        <ele>443.909</ele>
        <time>1970-01-01T01:00:00Z</time>
      </trkpt>
      <trkpt lat="62.51168" lon="14.18037">
        <ele>443.727</ele>
        <time>1970-01-01T01:00:00Z</time>
      </trkpt>
      <trkpt lat="62.51165" lon="14.18059">
        <ele>443.545</ele>
        <time>1970-01-01T01:00:00Z</time>
      </trkpt>
      <trkpt lat="62.511534" lon="14.181148">
        <ele>443.455</ele>
        <time>1970-01-01T01:00:00Z</time>
      </trkpt>
      <trkpt lat="62.511498" lon="14.181348">
        <ele>443.455</ele>
        <time>1970-01-01T01:00:00Z</time>
      </trkpt>
      <trkpt lat="62.511468" lon="14.181663">
        <ele>443.455</ele>
        <time>1970-01-01T01:00:00Z</time>
      </trkpt>
      <trkpt lat="62.511451" lon="14.181882">
        <ele>443.455</ele>
        <time>1970-01-01T01:00:00Z</time>
      </trkpt>
      <trkpt lat="62.511394" lon="14.18212">
        <ele>443.545</ele>
        <time>1970-01-01T01:00:00Z</time>
      </trkpt>
      <trkpt lat="62.511355" lon="14.182356">
        <ele>443.727</ele>
        <time>1970-01-01T01:00:00Z</time>
      </trkpt>
      <trkpt lat="62.511329" lon="14.182557">
        <ele>443.909</ele>
        <time>1970-01-01T01:00:00Z</time>
      </trkpt>
      <trkpt lat="62.511286" lon="14.182739">
        <ele>444.091</ele>
        <time>1970-01-01T01:00:00Z</time>
      </trkpt>
      <trkpt lat="62.511251" lon="14.182922">
        <ele>444.364</ele>
        <time>1970-01-01T01:00:00Z</time>
      </trkpt>
      <trkpt lat="62.511228" lon="14.183131">
        <ele>444.636</ele>
        <time>1970-01-01T01:00:00Z</time>
      </trkpt>
      <trkpt lat="62.511201" lon="14.183344">
        <ele>444.909</ele>
        <time>1970-01-01T01:00:00Z</time>
      </trkpt>
      <trkpt lat="62.511184" lon="14.183536">
        <ele>445.091</ele>
        <time>1970-01-01T01:00:00Z</time>
      </trkpt>
      <trkpt lat="62.511167" lon="14.183764">
        <ele>445.364</ele>
        <time>1970-01-01T01:00:00Z</time>
      </trkpt>
      <trkpt lat="62.511165" lon="14.183972">
        <ele>445.636</ele>
        <time>1970-01-01T01:00:00Z</time>
      </trkpt>
      <trkpt lat="62.511137" lon="14.184222">
        <ele>445.909</ele>
        <time>1970-01-01T01:00:00Z</time>
      </trkpt>
      <trkpt lat="62.511128" lon="14.184449">
        <ele>446.182</ele>
        <time>1970-01-01T01:00:00Z</time>
      </trkpt>
      <trkpt lat="62.511117" lon="14.184667">
        <ele>446.455</ele>
        <time>1970-01-01T01:00:00Z</time>
      </trkpt>
      <trkpt lat="62.511115" lon="14.184896">
        <ele>446.727</ele>
        <time>1970-01-01T01:00:00Z</time>
      </trkpt>
      <trkpt lat="62.511118" lon="14.185176">
        <ele>447</ele>
        <time>1970-01-01T01:00:00Z</time>
      </trkpt>
      <trkpt lat="62.511098" lon="14.185386">
        <ele>447.273</ele>
        <time>1970-01-01T01:00:00Z</time>
      </trkpt>
      <trkpt lat="62.511062" lon="14.185608">
        <ele>447.545</ele>
        <time>1970-01-01T01:00:00Z</time>
      </trkpt>
      <trkpt lat="62.511027" lon="14.185818">
        <ele>447.818</ele>
        <time>1970-01-01T01:00:00Z</time>
      </trkpt>
      <trkpt lat="62.510974" lon="14.186029">
        <ele>448.091</ele>
        <time>1970-01-01T01:00:00Z</time>
      </trkpt>
      <trkpt lat="62.510918" lon="14.186193">
        <ele>448.273</ele>
        <time>1970-01-01T01:00:00Z</time>
      </trkpt>
      <trkpt lat="62.510841" lon="14.186339">
        <ele>448.545</ele>
        <time>1970-01-01T01:00:00Z</time>
      </trkpt>
      <trkpt lat="62.510787" lon="14.186496">
        <ele>448.818</ele>
        <time>1970-01-01T01:00:00Z</time>
      </trkpt>
      <trkpt lat="62.510729" lon="14.186676">
        <ele>448.818</ele>
        <time>1970-01-01T01:00:00Z</time>
      </trkpt>
      <trkpt lat="62.510672" lon="14.186879">
        <ele>448.909</ele>
        <time>1970-01-01T01:00:00Z</time>
      </trkpt>
      <trkpt lat="62.510624" lon="14.187094">
        <ele>449</ele>
        <time>1970-01-01T01:00:00Z</time>
      </trkpt>
      <trkpt lat="62.510563" lon="14.187317">
        <ele>449.091</ele>
        <time>1970-01-01T01:00:00Z</time>
      </trkpt>
      <trkpt lat="62.51051" lon="14.187542">
        <ele>449.091</ele>
        <time>1970-01-01T01:00:00Z</time>
      </trkpt>
      <trkpt lat="62.510457" lon="14.187809">
        <ele>449.091</ele>
        <time>1970-01-01T01:00:00Z</time>
      </trkpt>
      <trkpt lat="62.510391" lon="14.188063">
        <ele>449.091</ele>
        <time>1970-01-01T01:00:00Z</time>
      </trkpt>
      <trkpt lat="62.51034" lon="14.188292">
        <ele>449.091</ele>
        <time>1970-01-01T01:00:00Z</time>
      </trkpt>
      <trkpt lat="62.510302" lon="14.188514">
        <ele>449.182</ele>
        <time>1970-01-01T01:00:00Z</time>
      </trkpt>
      <trkpt lat="62.51027" lon="14.188714">
        <ele>449.182</ele>
        <time>1970-01-01T01:00:00Z</time>
      </trkpt>
      <trkpt lat="62.51023" lon="14.188975">
        <ele>449.182</ele>
        <time>1970-01-01T01:00:00Z</time>
      </trkpt>
      <trkpt lat="62.510203" lon="14.189195">
        <ele>449.364</ele>
        <time>1970-01-01T01:00:00Z</time>
      </trkpt>
      <trkpt lat="62.51015" lon="14.189409">
        <ele>449.455</ele>
        <time>1970-01-01T01:00:00Z</time>
      </trkpt>
      <trkpt lat="62.510105" lon="14.189624">
        <ele>449.545</ele>
        <time>1970-01-01T01:00:00Z</time>
      </trkpt>
      <trkpt lat="62.510022" lon="14.189724">
        <ele>449.727</ele>
        <time>1970-01-01T01:00:00Z</time>
      </trkpt>
      <trkpt lat="62.509927" lon="14.189835">
        <ele>449.909</ele>
        <time>1970-01-01T01:00:00Z</time>
      </trkpt>
      <trkpt lat="62.509843" lon="14.189932">
        <ele>450.091</ele>
        <time>1970-01-01T01:00:00Z</time>
      </trkpt>
      <trkpt lat="62.50977" lon="14.190103">
        <ele>450.273</ele>
        <time>1970-01-01T01:00:00Z</time>
      </trkpt>
      <trkpt lat="62.509766" lon="14.190343">
        <ele>450.545</ele>
        <time>1970-01-01T01:00:00Z</time>
      </trkpt>
      <trkpt lat="62.509739" lon="14.190532">
        <ele>450.727</ele>
        <time>1970-01-01T01:00:00Z</time>
      </trkpt>
      <trkpt lat="62.509713" lon="14.190753">
        <ele>450.909</ele>
        <time>1970-01-01T01:00:00Z</time>
      </trkpt>
      <trkpt lat="62.509708" lon="14.190974">
        <ele>451.091</ele>
        <time>1970-01-01T01:00:00Z</time>
      </trkpt>
      <trkpt lat="62.509721" lon="14.191207">
        <ele>451.455</ele>
        <time>1970-01-01T01:00:00Z</time>
      </trkpt>
      <trkpt lat="62.509741" lon="14.191445">
        <ele>452</ele>
        <time>1970-01-01T01:00:00Z</time>
      </trkpt>
      <trkpt lat="62.509709" lon="14.19163">
        <ele>452.545</ele>
        <time>1970-01-01T01:00:00Z</time>
      </trkpt>
      <trkpt lat="62.509643" lon="14.191817">
        <ele>453</ele>
        <time>1970-01-01T01:00:00Z</time>
      </trkpt>
      <trkpt lat="62.509594" lon="14.192017">
        <ele>453.455</ele>
        <time>1970-01-01T01:00:00Z</time>
      </trkpt>
      <trkpt lat="62.509544" lon="14.192192">
        <ele>454</ele>
        <time>1970-01-01T01:00:00Z</time>
      </trkpt>
      <trkpt lat="62.509481" lon="14.192348">
        <ele>454.545</ele>
        <time>1970-01-01T01:00:00Z</time>
      </trkpt>
      <trkpt lat="62.509441" lon="14.192532">
        <ele>455</ele>
        <time>1970-01-01T01:00:00Z</time>
      </trkpt>
      <trkpt lat="62.509442" lon="14.19274">
        <ele>455.455</ele>
        <time>1970-01-01T01:00:00Z</time>
      </trkpt>
      <trkpt lat="62.509396" lon="14.192958">
        <ele>456</ele>
        <time>1970-01-01T01:00:00Z</time>
      </trkpt>
      <trkpt lat="62.50935" lon="14.193151">
        <ele>456.545</ele>
        <time>1970-01-01T01:00:00Z</time>
      </trkpt>
      <trkpt lat="62.509309" lon="14.193369">
        <ele>456.909</ele>
        <time>1970-01-01T01:00:00Z</time>
      </trkpt>
      <trkpt lat="62.509263" lon="14.193554">
        <ele>457.091</ele>
        <time>1970-01-01T01:00:00Z</time>
      </trkpt>
      <trkpt lat="62.509186" lon="14.193672">
        <ele>457.273</ele>
        <time>1970-01-01T01:00:00Z</time>
      </trkpt>
      <trkpt lat="62.509141" lon="14.193905">
        <ele>457.455</ele>
        <time>1970-01-01T01:00:00Z</time>
      </trkpt>
      <trkpt lat="62.509094" lon="14.194175">
        <ele>457.818</ele>
        <time>1970-01-01T01:00:00Z</time>
      </trkpt>
      <trkpt lat="62.509049" lon="14.194348">
        <ele>458.091</ele>
        <time>1970-01-01T01:00:00Z</time>
      </trkpt>
      <trkpt lat="62.508968" lon="14.19453">
        <ele>458.364</ele>
        <time>1970-01-01T01:00:00Z</time>
      </trkpt>
      <trkpt lat="62.508874" lon="14.194525">
        <ele>458.636</ele>
        <time>1970-01-01T01:00:00Z</time>
      </trkpt>
      <trkpt lat="62.508793" lon="14.194395">
        <ele>458.909</ele>
        <time>1970-01-01T01:00:00Z</time>
      </trkpt>
      <trkpt lat="62.508692" lon="14.194304">
        <ele>459.091</ele>
        <time>1970-01-01T01:00:00Z</time>
      </trkpt>
      <trkpt lat="62.508606" lon="14.194223">
        <ele>459.273</ele>
        <time>1970-01-01T01:00:00Z</time>
      </trkpt>
      <trkpt lat="62.508526" lon="14.194133">
        <ele>459.455</ele>
        <time>1970-01-01T01:00:00Z</time>
      </trkpt>
      <trkpt lat="62.508486" lon="14.193953">
        <ele>459.545</ele>
        <time>1970-01-01T01:00:00Z</time>
      </trkpt>
      <trkpt lat="62.508503" lon="14.193741">
        <ele>459.636</ele>
        <time>1970-01-01T01:00:00Z</time>
      </trkpt>
      <trkpt lat="62.508438" lon="14.193606">
        <ele>459.727</ele>
        <time>1970-01-01T01:00:00Z</time>
      </trkpt>
      <trkpt lat="62.508394" lon="14.19343">
        <ele>459.636</ele>
        <time>1970-01-01T01:00:00Z</time>
      </trkpt>
      <trkpt lat="62.508357" lon="14.193226">
        <ele>459.364</ele>
        <time>1970-01-01T01:00:00Z</time>
      </trkpt>
      <trkpt lat="62.508331" lon="14.193009">
        <ele>459.091</ele>
        <time>1970-01-01T01:00:00Z</time>
      </trkpt>
      <trkpt lat="62.508282" lon="14.192821">
        <ele>458.818</ele>
        <time>1970-01-01T01:00:00Z</time>
      </trkpt>
      <trkpt lat="62.508223" lon="14.192595">
        <ele>458.545</ele>
        <time>1970-01-01T01:00:00Z</time>
      </trkpt>
      <trkpt lat="62.508182" lon="14.192393">
        <ele>458.455</ele>
        <time>1970-01-01T01:00:00Z</time>
      </trkpt>
      <trkpt lat="62.508134" lon="14.19216">
        <ele>458.364</ele>
        <time>1970-01-01T01:00:00Z</time>
      </trkpt>
      <trkpt lat="62.508108" lon="14.19197">
        <ele>458.273</ele>
        <time>1970-01-01T01:00:00Z</time>
      </trkpt>
      <trkpt lat="62.50805" lon="14.191769">
        <ele>458.273</ele>
        <time>1970-01-01T01:00:00Z</time>
      </trkpt>
      <trkpt lat="62.507979" lon="14.19164">
        <ele>458.273</ele>
        <time>1970-01-01T01:00:00Z</time>
      </trkpt>
      <trkpt lat="62.507894" lon="14.19155">
        <ele>458.273</ele>
        <time>1970-01-01T01:00:00Z</time>
      </trkpt>
      <trkpt lat="62.507783" lon="14.191477">
        <ele>457.364</ele>
        <time>1970-01-01T01:00:00Z</time>
      </trkpt>
      <trkpt lat="62.507673" lon="14.191447">
        <ele>456.636</ele>
        <time>1970-01-01T01:00:00Z</time>
      </trkpt>
      <trkpt lat="62.507574" lon="14.191416">
        <ele>455.727</ele>
        <time>1970-01-01T01:00:00Z</time>
      </trkpt>
      <trkpt lat="62.507458" lon="14.191356">
        <ele>454.818</ele>
        <time>1970-01-01T01:00:00Z</time>
      </trkpt>
      <trkpt lat="62.507353" lon="14.191278">
        <ele>453.909</ele>
        <time>1970-01-01T01:00:00Z</time>
      </trkpt>
      <trkpt lat="62.50727" lon="14.191193">
        <ele>452.818</ele>
        <time>1970-01-01T01:00:00Z</time>
      </trkpt>
      <trkpt lat="62.507173" lon="14.191087">
        <ele>451.818</ele>
        <time>1970-01-01T01:00:00Z</time>
      </trkpt>
      <trkpt lat="62.50709" lon="14.191004">
        <ele>450.818</ele>
        <time>1970-01-01T01:00:00Z</time>
      </trkpt>
      <trkpt lat="62.50701" lon="14.190871">
        <ele>449.818</ele>
        <time>1970-01-01T01:00:00Z</time>
      </trkpt>
      <trkpt lat="62.506923" lon="14.190641">
        <ele>448.818</ele>
        <time>1970-01-01T01:00:00Z</time>
      </trkpt>
      <trkpt lat="62.506847" lon="14.190489">
        <ele>447.818</ele>
        <time>1970-01-01T01:00:00Z</time>
      </trkpt>
      <trkpt lat="62.506782" lon="14.190342">
        <ele>447.727</ele>
        <time>1970-01-01T01:00:00Z</time>
      </trkpt>
      <trkpt lat="62.506722" lon="14.190155">
        <ele>447.636</ele>
        <time>1970-01-01T01:00:00Z</time>
      </trkpt>
      <trkpt lat="62.506649" lon="14.189957">
        <ele>447.727</ele>
        <time>1970-01-01T01:00:00Z</time>
      </trkpt>
      <trkpt lat="62.506608" lon="14.189781">
        <ele>447.909</ele>
        <time>1970-01-01T01:00:00Z</time>
      </trkpt>
      <trkpt lat="62.506587" lon="14.189586">
        <ele>448.091</ele>
        <time>1970-01-01T01:00:00Z</time>
      </trkpt>
      <trkpt lat="62.506555" lon="14.189398">
        <ele>448.273</ele>
        <time>1970-01-01T01:00:00Z</time>
      </trkpt>
      <trkpt lat="62.506497" lon="14.189211">
        <ele>448.364</ele>
        <time>1970-01-01T01:00:00Z</time>
      </trkpt>
      <trkpt lat="62.506467" lon="14.188985">
        <ele>448.545</ele>
        <time>1970-01-01T01:00:00Z</time>
      </trkpt>
      <trkpt lat="62.506465" lon="14.188756">
        <ele>448.818</ele>
        <time>1970-01-01T01:00:00Z</time>
      </trkpt>
      <trkpt lat="62.506442" lon="14.188544">
        <ele>449.091</ele>
        <time>1970-01-01T01:00:00Z</time>
      </trkpt>
      <trkpt lat="62.506393" lon="14.188334">
        <ele>449.364</ele>
        <time>1970-01-01T01:00:00Z</time>
      </trkpt>
      <trkpt lat="62.506336" lon="14.188141">
        <ele>449.909</ele>
        <time>1970-01-01T01:00:00Z</time>
      </trkpt>
      <trkpt lat="62.506265" lon="14.187978">
        <ele>450.455</ele>
        <time>1970-01-01T01:00:00Z</time>
      </trkpt>
      <trkpt lat="62.506183" lon="14.187812">
        <ele>451</ele>
        <time>1970-01-01T01:00:00Z</time>
      </trkpt>
      <trkpt lat="62.5061" lon="14.18759">
        <ele>451.455</ele>
        <time>1970-01-01T01:00:00Z</time>
      </trkpt>
      <trkpt lat="62.506074" lon="14.187345">
        <ele>452.091</ele>
        <time>1970-01-01T01:00:00Z</time>
      </trkpt>
      <trkpt lat="62.50609" lon="14.18712">
        <ele>452.727</ele>
        <time>1970-01-01T01:00:00Z</time>
      </trkpt>
      <trkpt lat="62.506112" lon="14.186861">
        <ele>453.364</ele>
        <time>1970-01-01T01:00:00Z</time>
      </trkpt>
      <trkpt lat="62.506134" lon="14.1866">
        <ele>454.182</ele>
        <time>1970-01-01T01:00:00Z</time>
      </trkpt>
      <trkpt lat="62.506139" lon="14.186355">
        <ele>454.909</ele>
        <time>1970-01-01T01:00:00Z</time>
      </trkpt>
      <trkpt lat="62.506168" lon="14.186069">
        <ele>455.636</ele>
        <time>1970-01-01T01:00:00Z</time>
      </trkpt>
      <trkpt lat="62.506199" lon="14.185835">
        <ele>456.364</ele>
        <time>1970-01-01T01:00:00Z</time>
      </trkpt>
      <trkpt lat="62.506218" lon="14.18563">
        <ele>456.818</ele>
        <time>1970-01-01T01:00:00Z</time>
      </trkpt>
      <trkpt lat="62.506206" lon="14.185372">
        <ele>457.273</ele>
        <time>1970-01-01T01:00:00Z</time>
      </trkpt>
      <trkpt lat="62.506189" lon="14.185087">
        <ele>457.727</ele>
        <time>1970-01-01T01:00:00Z</time>
      </trkpt>
      <trkpt lat="62.506198" lon="14.184885">
        <ele>457.818</ele>
        <time>1970-01-01T01:00:00Z</time>
      </trkpt>
      <trkpt lat="62.50622" lon="14.184691">
        <ele>457.727</ele>
        <time>1970-01-01T01:00:00Z</time>
      </trkpt>
      <trkpt lat="62.506248" lon="14.184439">
        <ele>457.636</ele>
        <time>1970-01-01T01:00:00Z</time>
      </trkpt>
      <trkpt lat="62.506268" lon="14.184204">
        <ele>457.545</ele>
        <time>1970-01-01T01:00:00Z</time>
      </trkpt>
      <trkpt lat="62.506286" lon="14.18395">
        <ele>457.182</ele>
        <time>1970-01-01T01:00:00Z</time>
      </trkpt>
      <trkpt lat="62.506325" lon="14.183765">
        <ele>456.818</ele>
        <time>1970-01-01T01:00:00Z</time>
      </trkpt>
      <trkpt lat="62.506361" lon="14.183572">
        <ele>456.455</ele>
        <time>1970-01-01T01:00:00Z</time>
      </trkpt>
      <trkpt lat="62.506364" lon="14.183368">
        <ele>456.091</ele>
        <time>1970-01-01T01:00:00Z</time>
      </trkpt>
      <trkpt lat="62.506355" lon="14.183143">
        <ele>455.636</ele>
        <time>1970-01-01T01:00:00Z</time>
      </trkpt>
      <trkpt lat="62.506359" lon="14.182939">
        <ele>455.182</ele>
        <time>1970-01-01T01:00:00Z</time>
      </trkpt>
      <trkpt lat="62.506375" lon="14.182724">
        <ele>454.727</ele>
        <time>1970-01-01T01:00:00Z</time>
      </trkpt>
      <trkpt lat="62.506387" lon="14.182518">
        <ele>454.636</ele>
        <time>1970-01-01T01:00:00Z</time>
      </trkpt>
      <trkpt lat="62.506327" lon="14.182344">
        <ele>454.545</ele>
        <time>1970-01-01T01:00:00Z</time>
      </trkpt>
      <trkpt lat="62.506367" lon="14.182143">
        <ele>454.364</ele>
        <time>1970-01-01T01:00:00Z</time>
      </trkpt>
      <trkpt lat="62.506362" lon="14.18193">
        <ele>454.182</ele>
        <time>1970-01-01T01:00:00Z</time>
      </trkpt>
      <trkpt lat="62.50635" lon="14.181708">
        <ele>454</ele>
        <time>1970-01-01T01:00:00Z</time>
      </trkpt>
      <trkpt lat="62.506379" lon="14.181519">
        <ele>453.818</ele>
        <time>1970-01-01T01:00:00Z</time>
      </trkpt>
      <trkpt lat="62.506409" lon="14.181323">
        <ele>453.545</ele>
        <time>1970-01-01T01:00:00Z</time>
      </trkpt>
      <trkpt lat="62.50642" lon="14.181112">
        <ele>453.273</ele>
        <time>1970-01-01T01:00:00Z</time>
      </trkpt>
      <trkpt lat="62.506446" lon="14.180911">
        <ele>453.091</ele>
        <time>1970-01-01T01:00:00Z</time>
      </trkpt>
      <trkpt lat="62.506481" lon="14.180669">
        <ele>452.727</ele>
        <time>1970-01-01T01:00:00Z</time>
      </trkpt>
      <trkpt lat="62.506531" lon="14.180462">
        <ele>452.364</ele>
        <time>1970-01-01T01:00:00Z</time>
      </trkpt>
      <trkpt lat="62.506574" lon="14.180271">
        <ele>452</ele>
        <time>1970-01-01T01:00:00Z</time>
      </trkpt>
      <trkpt lat="62.506585" lon="14.180051">
        <ele>451.636</ele>
        <time>1970-01-01T01:00:00Z</time>
      </trkpt>
      <trkpt lat="62.506576" lon="14.179786">
        <ele>451.364</ele>
        <time>1970-01-01T01:00:00Z</time>
      </trkpt>
      <trkpt lat="62.506551" lon="14.179569">
        <ele>451.545</ele>
        <time>1970-01-01T01:00:00Z</time>
      </trkpt>
      <trkpt lat="62.506562" lon="14.179359">
        <ele>451.727</ele>
        <time>1970-01-01T01:00:00Z</time>
      </trkpt>
      <trkpt lat="62.506502" lon="14.179203">
        <ele>451.909</ele>
        <time>1970-01-01T01:00:00Z</time>
      </trkpt>
      <trkpt lat="62.506411" lon="14.179233">
        <ele>452.182</ele>
        <time>1970-01-01T01:00:00Z</time>
      </trkpt>
      <trkpt lat="62.506308" lon="14.179207">
        <ele>452.455</ele>
        <time>1970-01-01T01:00:00Z</time>
      </trkpt>
      <trkpt lat="62.506217" lon="14.179205">
        <ele>452.727</ele>
        <time>1970-01-01T01:00:00Z</time>
      </trkpt>
      <trkpt lat="62.50612" lon="14.179258">
        <ele>453.182</ele>
        <time>1970-01-01T01:00:00Z</time>
      </trkpt>
      <trkpt lat="62.506055" lon="14.179419">
        <ele>453.5</ele>
        <time>1970-01-01T01:00:00Z</time>
      </trkpt>
      <trkpt lat="62.50596" lon="14.179401">
        <ele>453.889</ele>
        <time>1970-01-01T01:00:00Z</time>
      </trkpt>
      <trkpt lat="62.505869" lon="14.179374">
        <ele>454.375</ele>
        <time>1970-01-01T01:00:00Z</time>
      </trkpt>
      <trkpt lat="62.505811" lon="14.179212">
        <ele>455</ele>
        <time>1970-01-01T01:00:00Z</time>
      </trkpt>
      <trkpt lat="62.505785" lon="14.179098">
        <ele>455</ele>
        <time>1970-01-01T01:00:00Z</time>
      </trkpt>
    </trkseg>
  </trk>
</gpx>